FW0869 Weather Reports


Display with metric or nautical units.
time (UTC)temp
F
wind
direction
speed
MPH
gust
MPH
rain 1hr
in
rain 24hr
in
rain mn
in
humidity
%
barometer
mb
20260510102253 48 43 3.0 6.0 0.00 0.00 0.00 74 1026.2
20260510102214 48 59 2.0 5.0 0.00 0.00 0.00 74 1026.2
20260510102113 48 59 2.0 5.0 0.00 0.00 0.00 74 1026.2
20260510102013 48 59 2.0 5.0 0.00 0.00 0.00 74 1026.2
20260510101919 48 59 2.0 5.0 0.00 0.00 0.00 74 1026.2
20260510101746 48 59 2.0 5.0 0.00 0.00 0.00 74 1026.2
20260510101710 48 59 2.0 5.0 0.00 0.00 0.00 74 1026.2
20260510101607 48 59 3.0 5.0 0.00 0.00 0.00 74 1026.1
20260510101503 48 59 3.0 5.0 0.00 0.00 0.00 74 1026.2
20260510101403 48 59 3.0 5.0 0.00 0.00 0.00 74 1026.2
20260510101241 48 59 3.0 5.0 0.00 0.00 0.00 74 1026.1
20260510101202 48 62 3.0 5.0 0.00 0.00 0.00 74 1026.1
20260510101102 48 71 3.0 5.0 0.00 0.00 0.00 73 1026.2
20260510100959 48 71 3.0 5.0 0.00 0.00 0.00 73 1026.2
20260510100855 48 71 3.0 5.0 0.00 0.00 0.00 73 1026.2
20260510100807 48 38 3.0 5.0 0.00 0.00 0.00 73 1026.1
20260510100800 49 38 3.0 5.0 0.00 0.00 0.00 73 1026.2
20260510100555 49 34 2.0 5.0 0.00 0.00 0.00 73 1026.1
20260510100455 49 84 2.0 5.0 0.00 0.00 0.00 73 1026.1
20260510100442 49 52 2.0 5.0 0.00 0.00 0.00 73 1026.1
20260510100152 49 38 2.0 4.0 0.00 0.00 0.00 73 1026.1
20260510100049 49 64 2.0 4.0 0.00 0.00 0.00 73 1026.1
20260510095944 49 64 2.0 4.0 0.00 0.00 0.00 73 1026.1
20260510095844 49 64 2.0 4.0 0.00 0.00 0.00 73 1026.1
20260510095830 49 64 2.0 4.0 0.00 0.00 0.00 73 1026.1
20260510095644 49 64 2.0 4.0 0.00 0.00 0.00 73 1026.1
20260510095544 49 64 2.0 4.0 0.00 0.00 0.00 72 1026.1
20260510095441 49 64 2.0 4.0 0.00 0.00 0.00 72 1026.2
20260510095347 49 64 2.0 4.0 0.00 0.00 0.00 72 1026.1
20260510095217 48 101 2.0 4.0 0.00 0.00 0.00 72 1026.1
20260510095139 49 101 2.0 4.0 0.00 0.00 0.00 72 1026.1
20260510095037 49 83 2.0 4.0 0.00 0.00 0.00 72 1026.1
20260510094933 48 79 2.0 4.0 0.00 0.00 0.00 72 1026.0
20260510094833 48 79 2.0 4.0 0.00 0.00 0.00 72 1026.1
20260510094738 48 79 2.0 4.0 0.00 0.00 0.00 72 1026.1
20260510094531 48 79 2.0 4.0 0.00 0.00 0.00 72 1026.1
20260510094430 48 79 2.0 4.0 0.00 0.00 0.00 72 1026.1
20260510094329 49 79 2.0 4.0 0.00 0.00 0.00 72 1026.1
20260510094232 49 79 2.0 4.0 0.00 0.00 0.00 72 1026.1
20260510094026 49 79 2.0 4.0 0.00 0.00 0.00 72 1026.1
20260510093923 49 91 2.0 4.0 0.00 0.00 0.00 72 1026.1
20260510093830 49 91 2.0 4.0 0.00 0.00 0.00 72 1026.1
20260510093703 49 91 2.0 4.0 0.00 0.00 0.00 72 1026.1
20260510093622 49 91 2.0 4.0 0.00 0.00 0.00 72 1026.1
20260510093521 49 91 2.0 4.0 0.00 0.00 0.00 72 1026.0
20260510093424 49 91 2.0 3.0 0.00 0.00 0.00 72 1026.1
20260510093309 49 91 2.0 4.0 0.00 0.00 0.00 72 1026.0
20260510093116 49 91 2.0 4.0 0.00 0.00 0.00 72 1026.0
20260510093014 49 91 2.0 4.0 0.00 0.00 0.00 72 1026.1
20260510092911 48 91 2.0 4.0 0.00 0.00 0.00 72 1026.0
20260510092812 49 91 2.0 4.0 0.00 0.00 0.00 72 1026.0
20260510092703 49 91 2.0 4.0 0.00 0.00 0.00 72 1026.0
20260510092610 49 91 2.0 4.0 0.00 0.00 0.00 72 1026.0
20260510092514 48 91 2.0 6.0 0.00 0.00 0.00 72 1026.0
20260510092307 48 91 2.0 6.0 0.00 0.00 0.00 72 1025.8
20260510092205 48 91 2.0 6.0 0.00 0.00 0.00 72 1026.0
20260510092103 48 91 2.0 6.0 0.00 0.00 0.00 72 1025.8
20260510092001 48 91 2.0 6.0 0.00 0.00 0.00 72 1026.0
20260510091859 48 91 2.0 6.0 0.00 0.00 0.00 73 1025.8
20260510091759 48 91 2.0 6.0 0.00 0.00 0.00 73 1025.8
20260510091702 48 91 2.0 6.0 0.00 0.00 0.00 73 1025.8
20260510091657 48 91 2.0 6.0 0.00 0.00 0.00 73 1025.8
20260510091558 48 103 2.0 5.0 0.00 0.00 0.00 73 1025.8
20260510091455 48 118 1.0 4.0 0.00 0.00 0.00 73 1025.8
20260510091347 48 118 1.0 4.0 0.00 0.00 0.00 73 1025.8
20260510091246 48 118 1.0 4.0 0.00 0.00 0.00 73 1025.7
20260510091202 48 118 1.0 4.0 0.00 0.00 0.00 73 1025.7
20260510091152 48 118 1.0 4.0 0.00 0.00 0.00 73 1025.8
20260510090945 48 118 1.0 4.0 0.00 0.00 0.00 73 1025.7
20260510090851 48 118 1.0 4.0 0.00 0.00 0.00 73 1025.7
20260510090702 48 118 1.0 4.0 0.00 0.00 0.00 73 1025.7
20260510090643 48 118 1.0 4.0 0.00 0.00 0.00 73 1025.7
20260510090542 48 118 2.0 4.0 0.00 0.00 0.00 73 1025.7
20260510090440 48 118 2.0 4.0 0.00 0.00 0.00 73 1025.7
20260510090353 48 118 2.0 4.0 0.00 0.00 0.00 73 1025.7
20260510090345 48 118 2.0 4.0 0.00 0.00 0.00 73 1025.7
20260510090035 48 118 2.0 3.0 0.00 0.00 0.00 73 1025.7
20260510085934 48 118 2.0 3.0 0.00 0.00 0.00 73 1025.6
20260510085910 48 118 2.0 3.0 0.00 0.00 0.00 73 1025.6
20260510085631 48 118 2.0 3.0 0.00 0.00 0.00 73 1025.6
20260510085530 48 118 2.0 3.0 0.00 0.00 0.00 73 1025.5
20260510085427 48 118 2.0 3.0 0.00 0.00 0.00 73 1025.4
20260510085333 48 118 1.0 3.0 0.00 0.00 0.00 73 1025.4
20260510085155 48 118 1.0 3.0 0.00 0.00 0.00 73 1025.4
20260510085126 48 118 2.0 3.0 0.00 0.00 0.00 73 1025.4
20260510085023 48 118 2.0 3.0 0.00 0.00 0.00 73 1025.4
20260510084923 48 118 2.0 3.0 0.00 0.00 0.00 73 1025.4
20260510084836 48 118 2.0 3.0 0.00 0.00 0.00 73 1025.4
20260510084722 48 118 2.0 4.0 0.00 0.00 0.00 73 1025.4
20260510084515 48 118 2.0 4.0 0.00 0.00 0.00 73 1025.4
20260510084415 48 118 1.0 4.0 0.00 0.00 0.00 73 1025.4
20260510084405 48 118 2.0 4.0 0.00 0.00 0.00 73 1025.2
20260510084109 48 118 2.0 4.0 0.00 0.00 0.00 73 1025.4
20260510084010 48 118 2.0 4.0 0.00 0.00 0.00 73 1025.4
20260510083912 48 118 2.0 4.0 0.00 0.00 0.00 73 1025.2
20260510083705 48 118 2.0 4.0 0.00 0.00 0.00 73 1025.2
20260510083651 48 118 2.0 4.0 0.00 0.00 0.00 73 1025.2
20260510083605 48 118 1.0 4.0 0.00 0.00 0.00 73 1025.2
20260510083509 48 118 2.0 4.0 0.00 0.00 0.00 73 1025.2
20260510083305 48 118 2.0 4.0 0.00 0.00 0.00 73 1025.2
20260510083259 48 118 1.0 4.0 0.00 0.00 0.00 72 1025.4
20260510083055 48 118 2.0 4.0 0.00 0.00 0.00 72 1025.2
20260510082957 48 118 2.0 4.0 0.00 0.00 0.00 72 1025.2
20260510082904 48 118 2.0 4.0 0.00 0.00 0.00 72 1025.2
20260510082652 48 118 2.0 4.0 0.00 0.00 0.00 72 1025.2
20260510082555 48 118 2.0 4.0 0.00 0.00 0.00 72 1025.2
20260510082456 48 118 2.0 4.0 0.00 0.00 0.00 72 1025.1
20260510082356 48 118 2.0 4.0 0.00 0.00 0.00 72 1025.1
20260510082253 48 118 2.0 4.0 0.00 0.00 0.00 72 1025.1
20260510082154 48 118 2.0 4.0 0.00 0.00 0.00 72 1025.2
20260510082053 48 118 2.0 4.0 0.00 0.00 0.00 73 1025.1
20260510081953 48 118 2.0 4.0 0.00 0.00 0.00 73 1025.2
20260510081853 48 118 1.0 4.0 0.00 0.00 0.00 73 1025.2
20260510081755 48 118 1.0 4.0 0.00 0.00 0.00 73 1025.2
20260510081653 48 118 1.0 4.0 0.00 0.00 0.00 74 1025.1
20260510081601 48 118 1.0 4.0 0.00 0.00 0.00 74 1025.1
20260510081355 48 118 2.0 4.0 0.00 0.00 0.00 74 1025.1
20260510081254 48 118 2.0 4.0 0.00 0.00 0.00 74 1025.1
20260510081154 48 118 2.0 4.0 0.00 0.00 0.00 74 1025.1
20260510081051 48 118 2.0 4.0 0.00 0.00 0.00 74 1025.1
20260510080951 48 118 2.0 4.0 0.00 0.00 0.00 74 1025.1
20260510080851 48 118 2.0 4.0 0.00 0.00 0.00 74 1025.1
20260510080749 48 118 2.0 4.0 0.00 0.00 0.00 74 1025.1
20260510080647 48 118 2.0 4.0 0.00 0.00 0.00 74 1025.1
20260510080545 48 118 1.0 4.0 0.00 0.00 0.00 74 1025.1
20260510080446 48 118 1.0 4.0 0.00 0.00 0.00 74 1025.2
20260510080345 48 118 1.0 4.0 0.00 0.00 0.00 74 1025.2
20260510080244 48 118 1.0 4.0 0.00 0.00 0.00 74 1025.2
20260510080142 48 118 1.0 4.0 0.00 0.00 0.00 74 1025.2
20260510080044 48 118 1.0 4.0 0.00 0.00 0.00 74 1025.2
20260510075843 48 130 1.0 4.0 0.00 0.00 0.00 74 1025.2
20260510075635 48 128 1.0 4.0 0.00 0.00 0.00 74 1025.2
20260510075535 48 128 1.0 4.0 0.00 0.00 0.00 74 1025.2
20260510075433 48 128 1.0 4.0 0.00 0.00 0.00 74 1025.2
20260510075333 48 128 1.0 4.0 0.00 0.00 0.00 74 1025.2
20260510075231 48 128 2.0 4.0 0.00 0.00 0.00 74 1025.4
20260510075130 48 128 2.0 4.0 0.00 0.00 0.00 74 1025.4
20260510075026 48 128 1.0 4.0 0.00 0.00 0.00 74 1025.4
20260510074935 48 128 1.0 4.0 0.00 0.00 0.00 74 1025.4
20260510074621 48 59 1.0 3.0 0.00 0.00 0.00 74 1025.5
20260510074517 48 59 1.0 3.0 0.00 0.00 0.00 74 1025.5
20260510074416 48 59 1.0 3.0 0.00 0.00 0.00 74 1025.5
20260510074315 48 59 1.0 2.0 0.00 0.00 0.00 74 1025.6
20260510074216 48 59 1.0 2.0 0.00 0.00 0.00 74 1025.6
20260510074147 48 59 0.0 2.0 0.00 0.00 0.00 74 1025.5
20260510074116 48 59 0.0 2.0 0.00 0.00 0.00 74 1025.5
20260510074016 48 59 0.0 2.0 0.00 0.00 0.00 74 1025.5
20260510073809 48 59 0.0 2.0 0.00 0.00 0.00 74 1025.6
20260510073707 48 59 0.0 2.0 0.00 0.00 0.00 74 1025.5
20260510073644 48 59 0.0 2.0 0.00 0.00 0.00 74 1025.6
20260510073607 48 59 0.0 2.0 0.00 0.00 0.00 74 1025.6
20260510073507 48 59 0.0 2.0 0.00 0.00 0.00 74 1025.6
20260510073408 48 59 0.0 2.0 0.00 0.00 0.00 74 1025.6
20260510073315 48 59 0.0 1.0 0.00 0.00 0.00 74 1025.7
20260510073145 48 59 0.0 1.0 0.00 0.00 0.00 74 1025.6
20260510073107 48 59 0.0 1.0 0.00 0.00 0.00 74 1025.6
20260510073007 48 59 0.0 1.0 0.00 0.00 0.00 74 1025.7
20260510072906 48 59 0.0 1.0 0.00 0.00 0.00 74 1025.7
20260510072806 48 59 0.0 1.0 0.00 0.00 0.00 73 1025.6
20260510072705 48 59 0.0 1.0 0.00 0.00 0.00 73 1025.7
20260510072644 48 59 0.0 1.0 0.00 0.00 0.00 73 1025.7
20260510072617 48 59 0.0 0.0 0.00 0.00 0.00 73 1025.7
20260510072306 48 59 0.0 2.0 0.00 0.00 0.00 73 1025.7
20260510072142 48 59 0.0 2.0 0.00 0.00 0.00 73 1025.7
20260510072104 48 59 0.0 2.0 0.00 0.00 0.00 73 1025.7
20260510071857 48 59 1.0 2.0 0.00 0.00 0.00 73 1025.7
20260510071758 48 59 1.0 3.0 0.00 0.00 0.00 73 1025.7
20260510071641 48 59 1.0 3.0 0.00 0.00 0.00 73 1025.7
20260510071550 48 59 1.0 3.0 0.00 0.00 0.00 73 1025.7
20260510071449 48 59 1.0 3.0 0.00 0.00 0.00 73 1025.7
20260510071349 48 59 1.0 3.0 0.00 0.00 0.00 74 1025.7
20260510071254 48 59 1.0 3.0 0.00 0.00 0.00 74 1025.8
20260510071246 48 59 1.0 3.0 0.00 0.00 0.00 74 1025.7
20260510071048 48 59 1.0 3.0 0.00 0.00 0.00 74 1025.7
20260510070950 48 59 1.0 3.0 0.00 0.00 0.00 74 1025.7
20260510070850 48 59 0.0 3.0 0.00 0.00 0.00 74 1025.7
20260510070750 48 59 0.0 3.0 0.00 0.00 0.00 74 1025.7
20260510070650 49 59 0.0 2.0 0.00 0.00 0.00 74 1025.7
20260510070639 48 59 0.0 2.0 0.00 0.00 0.00 74 1025.7
20260510070545 49 59 0.0 2.0 0.00 0.00 0.00 74 1025.7
20260510070450 49 59 0.0 2.0 0.00 0.00 0.00 74 1025.7
20260510070253 49 59 0.0 2.0 0.00 0.00 0.00 74 1025.8
20260510070246 49 59 1.0 3.0 0.00 0.00 0.00 74 1025.7
20260510070037 49 59 1.0 3.0 0.00 0.00 0.00 74 1025.8
20260510065937 49 59 1.0 4.0 0.00 0.00 0.00 73 1025.8
20260510065853 49 59 1.0 4.0 0.00 0.00 0.00 73 1025.8
20260510065635 49 59 1.0 4.0 0.00 0.00 0.00 73 1025.8
20260510065535 49 59 1.0 4.0 0.00 0.00 0.00 73 1025.8
20260510065436 49 59 2.0 4.0 0.00 0.00 0.00 73 1025.8
20260510065336 49 59 2.0 4.0 0.00 0.00 0.00 74 1025.8
20260510065248 49 59 2.0 4.0 0.00 0.00 0.00 74 1025.8
20260510065137 49 59 2.0 6.0 0.00 0.00 0.00 74 1025.8
20260510065035 49 59 2.0 6.0 0.00 0.00 0.00 74 1025.8
20260510064935 49 59 3.0 6.0 0.00 0.00 0.00 74 1025.8
20260510064833 49 59 3.0 6.0 0.00 0.00 0.00 74 1025.7
20260510064733 49 59 3.0 6.0 0.00 0.00 0.00 74 1025.7
20260510064640 49 59 3.0 6.0 0.00 0.00 0.00 74 1025.7
20260510064433 49 59 3.0 6.0 0.00 0.00 0.00 74 1025.7
20260510064333 49 59 4.0 6.0 0.00 0.00 0.00 75 1025.7
20260510064246 49 30 4.0 6.0 0.00 0.00 0.00 75 1025.7
20260510064239 49 55 4.0 6.0 0.00 0.00 0.00 75 1025.8
20260510064034 49 53 4.0 6.0 0.00 0.00 0.00 75 1025.8
20260510063933 49 46 4.0 6.0 0.00 0.00 0.00 74 1025.7
20260510063840 49 55 4.0 7.0 0.00 0.00 0.00 74 1025.8
20260510063633 49 64 4.0 8.0 0.00 0.00 0.00 74 1025.8
20260510063533 49 37 4.0 8.0 0.00 0.00 0.00 74 1025.8
20260510063433 49 71 4.0 8.0 0.00 0.00 0.00 74 1025.8
20260510063333 49 57 4.0 8.0 0.00 0.00 0.00 74 1025.8
20260510063234 49 36 4.0 8.0 0.00 0.00 0.00 74 1026.0
20260510063134 49 36 4.0 8.0 0.00 0.00 0.00 74 1025.8
20260510063034 49 18 4.0 8.0 0.00 0.00 0.00 74 1026.0
20260510062929 49 5 4.0 8.0 0.00 0.00 0.00 74 1026.0
20260510062829 49 15 3.0 8.0 0.00 0.00 0.00 74 1025.8
20260510062748 49 38 3.0 7.0 0.00 0.00 0.00 73 1026.0
20260510062636 49 54 3.0 6.0 0.00 0.00 0.00 73 1026.0
20260510062429 49 26 3.0 7.0 0.00 0.00 0.00 73 1026.0
20260510062330 49 355 3.0 7.0 0.00 0.00 0.00 73 1026.0
20260510062242 49 32 3.0 7.0 0.00 0.00 0.00 73 1026.0
20260510062235 49 32 3.0 7.0 0.00 0.00 0.00 73 1026.0
20260510062029 49 15 2.0 7.0 0.00 0.00 0.00 72 1026.0
20260510061929 49 24 3.0 7.0 0.00 0.00 0.00 72 1026.0
20260510061829 49 24 3.0 7.0 0.00 0.00 0.00 72 1026.0
20260510061728 49 39 3.0 7.0 0.00 0.00 0.00 72 1026.0
20260510061629 49 19 3.0 7.0 0.00 0.00 0.00 72 1026.0
20260510061529 49 26 3.0 6.0 0.00 0.00 0.00 72 1026.0
20260510061429 49 11 3.0 6.0 0.00 0.00 0.00 72 1026.0
20260510061329 49 30 3.0 6.0 0.00 0.00 0.00 72 1026.0
20260510061229 49 0 3.0 6.0 0.00 0.00 0.00 72 1026.0
20260510061134 49 329 3.0 6.0 0.00 0.00 0.00 72 1025.8
20260510061130 49 5 3.0 6.0 0.00 0.00 0.00 72 1025.8
20260510061032 49 355 3.0 6.0 0.00 0.00 0.00 72 1025.8
20260510060825 49 32 3.0 6.0 0.00 0.00 0.00 72 1025.8
20260510060725 49 25 3.0 5.0 0.00 0.00 0.00 71 1025.8
20260510060631 49 24 3.0 5.0 0.00 0.00 0.00 71 1025.7
20260510060625 49 32 3.0 5.0 0.00 0.00 0.00 71 1025.7
20260510060531 49 18 3.0 5.0 0.00 0.00 0.00 71 1025.7
20260510060325 49 28 3.0 5.0 0.00 0.00 0.00 71 1025.7
20260510060226 49 44 3.0 5.0 0.00 0.00 0.00 71 1025.7
20260510060130 50 12 3.0 5.0 0.00 0.00 0.00 71 1025.7
20260510060123 49 12 3.0 5.0 0.00 0.00 0.00 71 1025.7
20260510060024 50 12 3.0 5.0 0.00 0.00 0.00 71 1025.7
20260510055924 50 12 3.0 5.0 0.00 0.00 0.00 70 1025.7
20260510055817 49 60 3.0 5.0 0.00 0.00 0.00 70 1025.7
20260510055717 50 60 3.0 5.0 0.00 0.00 0.00 70 1025.7
20260510055617 50 60 3.0 5.0 0.00 0.00 0.00 70 1025.7
20260510055518 50 55 2.0 4.0 0.00 0.00 0.00 70 1025.7
20260510055424 50 55 2.0 4.0 0.00 0.00 0.00 70 1025.7
20260510055215 50 55 2.0 4.0 0.00 0.00 0.00 70 1025.7
20260510055114 50 55 2.0 4.0 0.00 0.00 0.00 70 1025.7
20260510055013 50 55 2.0 4.0 0.00 0.00 0.00 70 1025.7
20260510054919 50 26 2.0 4.0 0.00 0.00 0.00 70 1025.6
20260510054632 50 26 1.0 3.0 0.00 0.00 0.00 70 1025.7
20260510054605 50 26 1.0 3.0 0.00 0.00 0.00 69 1025.7
20260510054505 50 26 2.0 3.0 0.00 0.00 0.00 69 1025.7
20260510054405 50 26 2.0 5.0 0.00 0.00 0.00 70 1025.7
20260510054259 50 26 2.0 7.0 0.00 0.00 0.00 69 1025.7
20260510054131 50 26 2.0 7.0 0.00 0.00 0.00 70 1025.7
20260510054100 50 26 2.0 7.0 0.00 0.00 0.00 70 1025.7
20260510054000 50 26 2.0 7.0 0.00 0.00 0.00 70 1025.8
20260510053858 50 26 2.0 7.0 0.00 0.00 0.00 69 1025.7
20260510053809 50 26 2.0 7.0 0.00 0.00 0.00 70 1025.8
20260510053802 50 26 2.0 7.0 0.00 0.00 0.00 69 1025.7
20260510053453 50 37 2.0 7.0 0.00 0.00 0.00 69 1025.8
20260510053350 50 33 1.0 6.0 0.00 0.00 0.00 70 1025.8
20260510053251 50 33 1.0 5.0 0.00 0.00 0.00 70 1025.8
20260510053149 50 30 1.0 4.0 0.00 0.00 0.00 70 1025.8
20260510053127 50 41 1.0 4.0 0.00 0.00 0.00 70 1025.8
20260510053050 50 55 1.0 3.0 0.00 0.00 0.00 69 1025.8
20260510052947 50 55 1.0 3.0 0.00 0.00 0.00 69 1025.8
20260510052846 50 55 1.0 3.0 0.00 0.00 0.00 69 1025.8
20260510052746 50 55 1.0 3.0 0.00 0.00 0.00 69 1025.8
20260510052653 50 55 1.0 3.0 0.00 0.00 0.00 69 1025.8
20260510052339 50 55 1.0 3.0 0.00 0.00 0.00 69 1025.8
20260510052237 50 55 1.0 4.0 0.00 0.00 0.00 69 1025.7
20260510052141 50 55 1.0 4.0 0.00 0.00 0.00 69 1025.8
20260510051939 50 55 1.0 4.0 0.00 0.00 0.00 69 1025.7
20260510051734 50 55 1.0 5.0 0.00 0.00 0.00 69 1025.7
20260510051627 50 55 1.0 5.0 0.00 0.00 0.00 69 1025.6
20260510051531 50 55 2.0 5.0 0.00 0.00 0.00 69 1025.7
20260510051434 50 55 2.0 6.0 0.00 0.00 0.00 69 1025.6
20260510051237 50 55 3.0 6.0 0.00 0.00 0.00 69 1025.6
20260510051125 50 55 3.0 8.0 0.00 0.00 0.00 69 1025.6
20260510051025 50 55 3.0 8.0 0.00 0.00 0.00 69 1025.5
20260510050924 50 55 3.0 8.0 0.00 0.00 0.00 69 1025.5
20260510050821 50 55 3.0 8.0 0.00 0.00 0.00 69 1025.5
20260510050717 50 80 3.0 8.0 0.00 0.00 0.00 69 1025.6
20260510050618 50 87 4.0 8.0 0.00 0.00 0.00 69 1025.5
20260510050517 50 85 4.0 8.0 0.00 0.00 0.00 69 1025.6
20260510050422 50 40 4.0 8.0 0.00 0.00 0.00 69 1025.6
20260510050215 50 35 4.0 8.0 0.00 0.00 0.00 69 1025.7
20260510050127 50 35 3.0 7.0 0.00 0.00 0.00 69 1025.7
20260510050114 50 39 3.0 7.0 0.00 0.00 0.00 69 1025.7
20260510050020 50 57 4.0 5.0 0.00 0.00 0.00 69 1025.8
20260510045813 50 43 3.0 5.0 0.00 0.00 0.00 69 1026.0
20260510045711 50 43 3.0 5.0 0.00 0.00 0.00 68 1026.0
20260510045623 50 49 3.0 5.0 0.00 0.00 0.00 68 1026.0
20260510045611 50 44 3.0 5.0 0.00 0.00 0.00 68 1026.0
20260510045511 50 62 3.0 5.0 0.00 0.00 0.00 69 1026.1
20260510045418 50 62 3.0 5.0 0.00 0.00 0.00 68 1026.0
20260510045223 50 41 3.0 5.0 0.00 0.00 0.00 68 1026.1
20260510045215 50 41 2.0 5.0 0.00 0.00 0.00 68 1026.1
20260510045007 50 41 3.0 5.0 0.00 0.00 0.00 68 1026.2
20260510044908 50 41 3.0 5.0 0.00 0.00 0.00 68 1026.1
20260510044808 50 41 2.0 5.0 0.00 0.00 0.00 68 1026.1
20260510044717 50 41 3.0 5.0 0.00 0.00 0.00 68 1026.1
20260510044710 50 41 2.0 5.0 0.00 0.00 0.00 68 1026.1
20260510044506 50 41 2.0 5.0 0.00 0.00 0.00 68 1026.1
20260510044405 50 41 2.0 5.0 0.00 0.00 0.00 68 1026.1
20260510044305 50 41 2.0 5.0 0.00 0.00 0.00 68 1026.1
20260510044230 50 41 2.0 5.0 0.00 0.00 0.00 69 1026.1
20260510044106 50 41 2.0 5.0 0.00 0.00 0.00 68 1026.1
20260510044005 50 41 2.0 5.0 0.00 0.00 0.00 68 1026.1
20260510043905 50 41 2.0 6.0 0.00 0.00 0.00 68 1026.1
20260510043803 50 41 2.0 6.0 0.00 0.00 0.00 68 1026.1
20260510043703 50 41 2.0 6.0 0.00 0.00 0.00 68 1026.1
20260510043603 50 41 2.0 6.0 0.00 0.00 0.00 68 1026.1
20260510043510 50 41 2.0 6.0 0.00 0.00 0.00 68 1026.0
20260510043301 50 41 2.0 6.0 0.00 0.00 0.00 68 1026.0
20260510043203 50 41 3.0 6.0 0.00 0.00 0.00 68 1026.0
20260510043124 50 41 3.0 6.0 0.00 0.00 0.00 68 1025.8
20260510043101 50 41 3.0 6.0 0.00 0.00 0.00 68 1025.8
20260510043008 50 32 3.0 7.0 0.00 0.00 0.00 68 1025.8
20260510042801 50 32 3.0 7.0 0.00 0.00 0.00 68 1025.6
20260510042702 50 28 3.0 7.0 0.00 0.00 0.00 68 1025.6
20260510042622 50 28 3.0 7.0 0.00 0.00 0.00 68 1025.5
20260510042602 50 28 3.0 7.0 0.00 0.00 0.00 68 1025.5
20260510042501 50 63 3.0 7.0 0.00 0.00 0.00 68 1025.5
20260510042401 50 49 3.0 7.0 0.00 0.00 0.00 68 1025.6
20260510042259 50 45 3.0 7.0 0.00 0.00 0.00 68 1025.6
20260510042211 50 64 3.0 7.0 0.00 0.00 0.00 68 1025.6
20260510042203 50 69 3.0 7.0 0.00 0.00 0.00 68 1025.6
20260510042007 50 32 3.0 6.0 0.00 0.00 0.00 68 1025.7
20260510041759 50 35 3.0 6.0 0.00 0.00 0.00 68 1025.8
20260510041700 50 341 3.0 6.0 0.00 0.00 0.00 68 1025.8
20260510041623 50 341 3.0 6.0 0.00 0.00 0.00 68 1026.0
20260510041559 50 341 3.0 6.0 0.00 0.00 0.00 68 1026.0
20260510041500 50 341 3.0 7.0 0.00 0.00 0.00 68 1026.0
20260510041354 50 11 3.0 7.0 0.00 0.00 0.00 68 1026.0
20260510041253 50 340 4.0 8.0 0.00 0.00 0.00 68 1026.0
20260510041153 50 336 3.0 8.0 0.00 0.00 0.00 68 1026.0
20260510041123 50 355 3.0 8.0 0.00 0.00 0.00 67 1026.0
20260510041053 50 9 3.0 8.0 0.00 0.00 0.00 67 1026.0
20260510040953 50 35 3.0 8.0 0.00 0.00 0.00 67 1025.8
20260510040918 50 346 4.0 8.0 0.00 0.00 0.00 67 1026.0
20260510040911 50 355 4.0 8.0 0.00 0.00 0.00 67 1026.0
20260510040453 50 16 4.0 8.0 0.00 0.00 0.00 67 1026.0
20260510040359 50 19 4.0 9.0 0.00 0.00 0.00 67 1026.0
20260510040159 50 16 4.0 9.0 0.00 0.00 0.00 68 1026.0
20260510040152 50 5 4.0 9.0 0.00 0.00 0.00 68 1026.0
20260510035954 50 327 4.0 9.0 0.00 0.00 0.00 67 1026.1
20260510035745 50 349 4.0 9.0 0.00 0.00 0.00 67 1026.0
20260510035639 50 5 4.0 9.0 0.00 0.00 0.00 67 1026.1
20260510035621 50 322 4.0 9.0 0.00 0.00 0.00 67 1026.1
20260510035546 50 336 4.0 9.0 0.00 0.00 0.00 67 1026.0
20260510035339 50 11 3.0 9.0 0.00 0.00 0.00 67 1026.0
20260510035239 50 336 3.0 9.0 0.00 0.00 0.00 67 1026.0
20260510035139 50 19 2.0 9.0 0.00 0.00 0.00 67 1026.0
20260510035122 50 329 2.0 9.0 0.00 0.00 0.00 67 1026.0
20260510035039 50 0 2.0 9.0 0.00 0.00 0.00 66 1025.8
20260510034948 50 346 2.0 6.0 0.00 0.00 0.00 66 1025.8
20260510034740 50 16 2.0 6.0 0.00 0.00 0.00 66 1025.8
20260510034643 50 0 2.0 6.0 0.00 0.00 0.00 66 1025.7
20260510034435 50 0 3.0 7.0 0.00 0.00 0.00 66 1025.7
20260510034335 50 46 3.0 9.0 0.00 0.00 0.00 66 1025.8
20260510034235 50 22 3.0 9.0 0.00 0.00 0.00 66 1025.8
20260510034135 50 28 3.0 9.0 0.00 0.00 0.00 66 1025.7
20260510034121 50 50 3.0 9.0 0.00 0.00 0.00 66 1025.7
20260510034035 50 53 3.0 9.0 0.00 0.00 0.00 66 1025.7
20260510033936 51 5 3.0 9.0 0.00 0.00 0.00 66 1025.7
20260510033835 51 5 4.0 9.0 0.00 0.00 0.00 66 1025.7
20260510033808 51 5 4.0 12.0 0.00 0.00 0.00 66 1025.8
20260510033654 51 56 5.0 13.0 0.00 0.00 0.00 66 1025.7
20260510033235 51 40 6.0 13.0 0.00 0.00 0.00 66 1025.6
20260510033121 51 351 6.0 13.0 0.00 0.00 0.00 66 1025.7
20260510033035 51 19 6.0 13.0 0.00 0.00 0.00 66 1025.6
20260510032935 51 32 6.0 13.0 0.00 0.00 0.00 66 1025.7
20260510032835 51 340 6.0 13.0 0.00 0.00 0.00 66 1025.6
20260510032735 51 14 6.0 13.0 0.00 0.00 0.00 66 1025.6
20260510032635 51 346 5.0 12.0 0.00 0.00 0.00 66 1025.7
20260510032621 51 15 5.0 11.0 0.00 0.00 0.00 66 1025.7
20260510032532 51 34 5.0 11.0 0.00 0.00 0.00 66 1025.6
20260510032431 51 355 5.0 11.0 0.00 0.00 0.00 66 1025.7
20260510032331 51 33 5.0 11.0 0.00 0.00 0.00 66 1025.6
20260510032231 51 5 5.0 12.0 0.00 0.00 0.00 66 1025.6
20260510032130 51 24 5.0 12.0 0.00 0.00 0.00 66 1025.6
20260510032121 51 5 5.0 12.0 0.00 0.00 0.00 66 1025.6
20260510032039 51 26 5.0 12.0 0.00 0.00 0.00 66 1025.6
20260510031839 51 5 6.0 13.0 0.00 0.00 0.00 66 1025.6
20260510031721 51 304 7.0 13.0 0.00 0.00 0.00 66 1025.6
20260510031531 51 53 7.0 13.0 0.00 0.00 0.00 66 1025.5
20260510031431 50 47 8.0 16.0 0.00 0.00 0.00 66 1025.5
20260510031332 50 32 8.0 16.0 0.00 0.00 0.00 66 1025.5
20260510031231 50 346 8.0 16.0 0.00 0.00 0.00 66 1025.5
20260510031210 51 311 9.0 16.0 0.00 0.00 0.00 66 1025.5
20260510031031 50 329 9.0 16.0 0.00 0.00 0.00 66 1025.4
20260510030931 50 350 9.0 16.0 0.00 0.00 0.00 66 1025.4
20260510030831 50 355 9.0 16.0 0.00 0.00 0.00 66 1025.4
20260510030739 50 344 9.0 16.0 0.00 0.00 0.00 66 1025.4
20260510030604 50 343 10.0 16.0 0.00 0.00 0.00 66 1025.2
20260510030531 50 9 10.0 17.0 0.00 0.00 0.00 66 1025.2
20260510030432 50 5 10.0 17.0 0.00 0.00 0.00 66 1025.1
20260510030345 51 339 10.0 18.0 0.00 0.00 0.00 66 1025.1
20260510030033 51 5 10.0 18.0 0.00 0.00 0.00 66 1025.0
20260510025827 51 9 10.0 18.0 0.00 0.00 0.00 66 1024.9
20260510025727 51 9 11.0 20.0 0.00 0.00 0.00 66 1024.8
20260510025627 51 340 11.0 20.0 0.00 0.00 0.00 66 1024.7
20260510025603 51 355 11.0 20.0 0.00 0.00 0.00 66 1024.7
20260510025527 51 338 11.0 21.0 0.00 0.00 0.00 66 1024.7
20260510025426 51 0 11.0 21.0 0.00 0.00 0.00 66 1024.5
20260510025327 51 317 11.0 21.0 0.00 0.00 0.00 66 1024.5
20260510025227 51 321 11.0 24.0 0.00 0.00 0.00 66 1024.4
20260510025127 51 300 12.0 24.0 0.00 0.00 0.00 67 1024.4
20260510025103 51 28 12.0 24.0 0.00 0.00 0.00 66 1024.4
20260510025027 51 0 12.0 24.0 0.00 0.00 0.00 66 1024.3
20260510024933 51 336 12.0 24.0 0.00 0.00 0.00 66 1024.2
20260510024727 51 30 12.0 24.0 0.00 0.00 0.00 66 1024.1
20260510024710 51 322 13.0 24.0 0.00 0.00 0.00 67 1023.9
20260510024528 51 347 13.0 24.0 0.00 0.00 0.00 67 1024.1
20260510024428 51 0 13.0 24.0 0.00 0.00 0.00 67 1023.9
20260510024327 51 0 14.0 24.0 0.00 0.00 0.00 67 1023.8
20260510024227 51 350 14.0 24.0 0.00 0.00 0.00 67 1023.8
20260510024127 51 14 14.0 24.0 0.00 0.00 0.00 68 1023.7
20260510024103 51 29 14.0 24.0 0.00 0.00 0.00 68 1023.7
20260510024023 51 342 14.0 24.0 0.00 0.00 0.00 67 1023.7
20260510023923 51 0 14.0 24.0 0.00 0.00 0.00 67 1023.6
20260510023823 51 334 14.0 24.0 0.00 0.00 0.00 67 1023.6
20260510023723 51 11 14.0 24.0 0.00 0.00 0.00 67 1023.6
20260510023623 51 0 14.0 24.0 0.00 0.00 0.00 67 1023.6
20260510023603 51 348 14.0 24.0 0.00 0.00 0.00 67 1023.6
20260510023523 51 23 13.0 24.0 0.00 0.00 0.00 68 1023.5
20260510023423 51 332 13.0 24.0 0.00 0.00 0.00 68 1023.4
20260510023323 51 315 13.0 24.0 0.00 0.00 0.00 68 1023.4
20260510023223 51 26 13.0 24.0 0.00 0.00 0.00 68 1023.4
20260510023125 51 307 12.0 24.0 0.00 0.00 0.00 68 1023.4
20260510023103 51 346 12.0 24.0 0.00 0.00 0.00 68 1023.4
20260510023023 51 355 12.0 23.0 0.00 0.00 0.00 68 1023.4
20260510022923 51 76 12.0 23.0 0.00 0.00 0.00 68 1023.2
20260510022829 51 350 12.0 23.0 0.00 0.00 0.00 68 1023.2
20260510022623 51 5 13.0 23.0 0.00 0.00 0.00 68 1023.1
20260510022605 51 355 13.0 23.0 0.00 0.00 0.00 68 1023.1
20260510022522 51 5 13.0 23.0 0.00 0.00 0.00 68 1022.9
20260510022423 51 340 12.0 23.0 0.00 0.00 0.00 68 1022.9
20260510022330 51 330 12.0 23.0 0.00 0.00 0.00 68 1022.8
20260510022123 51 344 13.0 23.0 0.00 0.00 0.00 68 1022.6
20260510022102 51 332 13.0 23.0 0.00 0.00 0.00 67 1022.6
20260510022023 51 334 13.0 23.0 0.00 0.00 0.00 67 1022.6
20260510021923 51 311 13.0 23.0 0.00 0.00 0.00 67 1022.6
20260510021830 52 339 13.0 23.0 0.00 0.00 0.00 67 1022.5
20260510021624 52 346 13.0 23.0 0.00 0.00 0.00 67 1022.6
20260510021603 52 13 13.0 23.0 0.00 0.00 0.00 67 1022.6
20260510021524 52 312 13.0 23.0 0.00 0.00 0.00 67 1022.5
20260510021417 52 350 13.0 23.0 0.00 0.00 0.00 67 1022.5
20260510021317 52 5 13.0 23.0 0.00 0.00 0.00 67 1022.5
20260510021217 52 309 14.0 23.0 0.00 0.00 0.00 67 1022.5
20260510021117 52 347 14.0 23.0 0.00 0.00 0.00 67 1022.4
20260510021104 52 348 14.0 23.0 0.00 0.00 0.00 67 1022.4
20260510021017 52 331 14.0 24.0 0.00 0.00 0.00 67 1022.4
20260510020917 52 336 14.0 24.0 0.00 0.00 0.00 67 1022.4
20260510020817 52 345 15.0 24.0 0.00 0.00 0.00 67 1022.4
20260510020717 52 348 15.0 24.0 0.00 0.00 0.00 67 1022.4
20260510020711 52 35 15.0 25.0 0.00 0.00 0.00 67 1022.3
20260510020517 52 320 15.0 25.0 0.00 0.00 0.00 67 1022.4
20260510020418 52 24 14.0 25.0 0.00 0.00 0.00 66 1022.4
20260510020335 52 0 14.0 25.0 0.00 0.00 0.00 66 1022.3
20260510020328 52 334 15.0 27.0 0.00 0.00 0.00 66 1022.3
20260510015909 53 350 16.0 28.0 0.00 0.00 0.00 66 1022.3
20260510015808 53 19 16.0 29.0 0.00 0.00 0.00 65 1022.3
20260510015715 53 355 16.0 32.0 0.00 0.00 0.00 65 1022.2
20260510015708 53 332 16.0 32.0 0.00 0.00 0.00 65 1022.2
20260510015503 53 14 17.0 32.0 0.00 0.00 0.00 65 1022.0
20260510015403 53 346 17.0 32.0 0.00 0.00 0.00 65 1022.0
20260510015301 53 55 17.0 32.0 0.00 0.00 0.00 65 1022.0
20260510015157 53 5 17.0 32.0 0.00 0.00 0.00 64 1022.0
20260510015106 53 342 17.0 32.0 0.00 0.00 0.00 64 1021.9
20260510015102 53 325 17.0 32.0 0.00 0.00 0.00 64 1021.9
20260510014902 53 338 16.0 32.0 0.00 0.00 0.00 64 1021.9
20260510014648 53 320 16.0 28.0 0.00 0.00 0.00 64 1021.7
20260510014604 53 349 16.0 28.0 0.00 0.00 0.00 64 1021.7
20260510014550 53 26 16.0 28.0 0.00 0.00 0.00 64 1021.6
20260510014449 53 347 16.0 28.0 0.00 0.00 0.00 64 1021.6
20260510014353 53 11 16.0 28.0 0.00 0.00 0.00 64 1021.6
20260510014157 54 349 16.0 28.0 0.00 0.00 0.00 63 1021.5
20260510014150 54 321 16.0 28.0 0.00 0.00 0.00 63 1021.5
20260510013945 54 355 17.0 29.0 0.00 0.00 0.00 63 1021.5
20260510013846 54 0 16.0 29.0 0.00 0.00 0.00 62 1021.3
20260510013745 54 299 16.0 29.0 0.00 0.00 0.00 62 1021.3
20260510013645 54 333 16.0 29.0 0.00 0.00 0.00 62 1021.6
20260510013555 54 0 15.0 29.0 0.00 0.00 0.00 62 1021.2
20260510013542 54 355 15.0 29.0 0.00 0.00 0.00 62 1021.2
20260510013443 54 329 16.0 29.0 0.00 0.00 0.00 62 1021.2
20260510013343 55 355 16.0 29.0 0.00 0.00 0.00 61 1021.3
20260510013243 55 355 16.0 29.0 0.00 0.00 0.00 61 1021.0
20260510013156 55 19 16.0 29.0 0.00 0.00 0.00 61 1021.0
20260510013043 55 23 16.0 29.0 0.00 0.00 0.00 61 1021.0
20260510012943 55 34 16.0 29.0 0.00 0.00 0.00 61 1020.9
20260510012842 55 329 16.0 29.0 0.00 0.00 0.00 60 1020.7
20260510012751 55 355 16.0 29.0 0.00 0.00 0.00 60 1020.6
20260510012548 55 302 17.0 29.0 0.00 0.00 0.00 60 1020.5
20260510012543 55 342 17.0 29.0 0.00 0.00 0.00 60 1020.5
20260510012438 55 15 17.0 29.0 0.00 0.00 0.00 59 1020.4
20260510012337 55 338 17.0 29.0 0.00 0.00 0.00 59 1020.5
20260510012237 56 355 16.0 29.0 0.00 0.00 0.00 59 1020.5
20260510012149 56 5 16.0 28.0 0.00 0.00 0.00 59 1020.6
20260510012036 56 23 17.0 28.0 0.00 0.00 0.00 59 1020.5
20260510011944 56 0 17.0 28.0 0.00 0.00 0.00 58 1020.5
20260510011630 56 340 17.0 29.0 0.00 0.00 0.00 57 1020.4
20260510011544 56 28 17.0 35.0 0.00 0.00 0.00 57 1020.4
20260510011529 56 298 17.0 35.0 0.00 0.00 0.00 57 1020.4
20260510011324 57 355 17.0 35.0 0.00 0.00 0.00 57 1020.3
20260510011223 57 315 18.0 35.0 0.00 0.00 0.00 56 1020.2
20260510011123 57 332 18.0 35.0 0.00 0.00 0.00 56 1020.0
20260510011040 57 286 17.0 35.0 0.00 0.00 0.00 56 1019.7
20260510011022 57 342 17.0 35.0 0.00 0.00 0.00 56 1019.7
20260510010926 58 0 17.0 35.0 0.00 0.00 0.00 55 1019.7
20260510010736 58 304 17.0 35.0 0.00 0.00 0.00 55 1019.6
20260510010729 58 339 17.0 35.0 0.00 0.00 0.00 54 1019.6
20260510010417 59 9 17.0 32.0 0.00 0.00 0.00 53 1019.7
20260510010212 59 0 17.0 33.0 0.00 0.00 0.00 52 1019.3
20260510010112 60 67 17.0 33.0 0.00 0.00 0.00 51 1019.3
20260510010040 60 355 17.0 33.0 0.00 0.00 0.00 52 1019.2
20260510010010 60 29 17.0 33.0 0.00 0.00 0.00 51 1019.2
20260510005906 60 342 17.0 33.0 0.00 0.00 0.00 51 1019.2
20260510005808 60 341 17.0 33.0 0.00 0.00 0.00 50 1019.1
20260510005705 61 350 17.0 33.0 0.00 0.00 0.00 50 1019.0
20260510005606 61 5 17.0 33.0 0.00 0.00 0.00 49 1019.0
20260510005541 61 5 17.0 33.0 0.00 0.00 0.00 49 1019.2
20260510005504 62 5 17.0 34.0 0.00 0.00 0.00 48 1019.2
20260510005401 62 42 18.0 40.0 0.00 0.00 0.00 48 1019.0
20260510005259 62 327 18.0 40.0 0.00 0.00 0.00 47 1018.8
20260510005200 63 355 18.0 40.0 0.00 0.00 0.00 46 1018.8
20260510005059 63 318 17.0 40.0 0.00 0.00 0.00 45 1018.8
20260510005040 64 318 17.0 40.0 0.00 0.00 0.00 45 1018.7
20260510004959 64 343 18.0 40.0 0.00 0.00 0.00 45 1018.6
20260510004853 64 0 18.0 40.0 0.00 0.00 0.00 43 1018.5
20260510004753 65 331 18.0 40.0 0.00 0.00 0.00 42 1018.4
20260510004730 66 278 18.0 40.0 0.00 0.00 0.00 41 1018.5
20260510004723 67 15 15.0 40.0 0.00 0.00 0.00 40 1018.5
20260510004050 71 5 9.0 32.0 0.00 0.00 0.00 33 1017.8
20260510004038 72 350 9.0 32.0 0.00 0.00 0.00 33 1017.8
20260510003947 73 339 7.0 32.0 0.00 0.00 0.00 31 1017.7
20260510003842 73 32 6.0 32.0 0.00 0.00 0.00 22 1017.5
20260510003748 73 38 5.0 20.0 0.00 0.00 0.00 22 1017.0
20260510003544 74 28 4.0 10.0 0.00 0.00 0.00 22 1016.7
20260510003537 74 26 4.0 10.0 0.00 0.00 0.00 22 1016.7
20260510003441 74 58 4.0 9.0 0.00 0.00 0.00 24 1016.6
20260510003341 74 22 4.0 9.0 0.00 0.00 0.00 22 1016.6
20260510003240 74 36 4.0 9.0 0.00 0.00 0.00 22 1016.6
20260510003141 74 44 4.0 9.0 0.00 0.00 0.00 24 1016.6
20260510003037 74 34 4.0 8.0 0.00 0.00 0.00 24 1016.5
20260510002935 74 19 4.0 9.0 0.00 0.00 0.00 23 1016.5
20260510002829 74 108 5.0 10.0 0.00 0.00 0.00 21 1016.5
20260510002735 74 77 4.0 10.0 0.00 0.00 0.00 21 1016.4
20260510002540 74 61 4.0 10.0 0.00 0.00 0.00 21 1016.5
20260510002536 74 59 4.0 10.0 0.00 0.00 0.00 21 1016.5
20260510002331 74 75 4.0 10.0 0.00 0.00 0.00 22 1016.4
20260510002124 74 43 3.0 10.0 0.00 0.00 0.00 22 1016.4
20260510002024 74 39 3.0 10.0 0.00 0.00 0.00 21 1016.2
20260510001922 74 39 3.0 10.0 0.00 0.00 0.00 21 1016.2
20260510001819 74 47 3.0 7.0 0.00 0.00 0.00 21 1016.1
20260510001719 74 40 3.0 7.0 0.00 0.00 0.00 21 1016.2
20260510001619 74 61 3.0 7.0 0.00 0.00 0.00 21 1016.1
20260510001533 74 306 2.0 6.0 0.00 0.00 0.00 23 1016.1
20260510001519 74 302 2.0 6.0 0.00 0.00 0.00 23 1016.1
20260510001416 74 302 2.0 6.0 0.00 0.00 0.00 23 1016.1
20260510001311 73 302 2.0 6.0 0.00 0.00 0.00 21 1016.1
20260510001211 73 44 2.0 6.0 0.00 0.00 0.00 21 1016.1
20260510001112 73 73 2.0 6.0 0.00 0.00 0.00 21 1016.1
20260510001011 73 91 3.0 6.0 0.00 0.00 0.00 21 1016.1
20260510000912 73 61 3.0 8.0 0.00 0.00 0.00 21 1016.1
20260510000807 73 85 2.0 8.0 0.00 0.00 0.00 21 1016.0
20260510000708 73 92 2.0 8.0 0.00 0.00 0.00 21 1016.0
20260510000608 73 69 2.0 8.0 0.00 0.00 0.00 21 1016.0
20260510000509 73 69 3.0 8.0 0.00 0.00 0.00 22 1016.0
20260510000258 73 69 3.0 8.0 0.00 0.00 0.00 22 1016.0
20260510000241 73 69 3.0 8.0 0.00 0.00 0.00 21 1015.9
20260509235958 73 78 3.0 8.0 0.00 0.00 0.00 22 1015.9
20260509235856 73 57 3.0 8.0 0.00 0.00 0.00 24 1015.9
20260509235753 73 57 4.0 8.0 0.00 0.00 0.00 21 1015.9
20260509235713 73 94 4.0 8.0 0.00 0.00 0.00 22 1015.9
20260509235706 73 74 4.0 8.0 0.00 0.00 0.00 21 1015.9
20260509235250 74 51 4.0 8.0 0.00 0.00 0.00 23 1015.9
20260509235043 74 68 4.0 8.0 0.00 0.00 0.00 21 1015.9
20260509235020 74 65 4.0 8.0 0.00 0.00 0.00 21 1015.9
20260509234942 74 67 4.0 8.0 0.00 0.00 0.00 21 1015.9
20260509234840 74 96 4.0 8.0 0.00 0.00 0.00 21 1015.9
20260509234742 74 98 4.0 7.0 0.00 0.00 0.00 21 1016.0
20260509234535 74 84 4.0 7.0 0.00 0.00 0.00 21 1016.0
20260509234513 74 82 4.0 7.0 0.00 0.00 0.00 21 1016.0
20260509234435 74 78 4.0 8.0 0.00 0.00 0.00 23 1015.9
20260509234348 74 50 4.0 8.0 0.00 0.00 0.00 21 1015.9
20260509234044 74 48 4.0 9.0 0.00 0.00 0.00 22 1015.8
20260509234036 74 82 4.0 10.0 0.00 0.00 0.00 22 1015.8
20260509233828 74 67 4.0 10.0 0.00 0.00 0.00 22 1015.8
20260509233724 73 115 4.0 10.0 0.00 0.00 0.00 22 1015.8
20260509233624 73 94 4.0 10.0 0.00 0.00 0.00 22 1015.8
20260509233502 73 93 5.0 10.0 0.00 0.00 0.00 23 1015.6
20260509233424 73 85 4.0 10.0 0.00 0.00 0.00 23 1015.6
20260509233330 74 96 4.0 10.0 0.00 0.00 0.00 24 1015.8
20260509233017 74 83 5.0 11.0 0.00 0.00 0.00 22 1015.6
20260509232955 74 123 5.0 11.0 0.00 0.00 0.00 22 1015.6
20260509232917 74 103 5.0 11.0 0.00 0.00 0.00 22 1015.6
20260509232816 74 85 5.0 11.0 0.00 0.00 0.00 22 1015.6
20260509232710 74 96 5.0 11.0 0.00 0.00 0.00 21 1015.6
20260509232611 74 107 6.0 11.0 0.00 0.00 0.00 22 1015.6
20260509232510 74 95 6.0 11.0 0.00 0.00 0.00 22 1015.6
20260509232450 74 110 6.0 11.0 0.00 0.00 0.00 22 1015.6
20260509232411 74 135 6.0 12.0 0.00 0.00 0.00 21 1015.6
20260509232310 74 97 6.0 12.0 0.00 0.00 0.00 22 1015.5
20260509232204 74 79 7.0 12.0 0.00 0.00 0.00 21 1015.4
20260509232106 74 90 6.0 13.0 0.00 0.00 0.00 21 1015.4
20260509232005 74 94 6.0 13.0 0.00 0.00 0.00 21 1015.4
20260509231944 74 87 7.0 13.0 0.00 0.00 0.00 21 1015.4
20260509231906 74 84 7.0 13.0 0.00 0.00 0.00 22 1015.4
20260509231804 74 98 7.0 13.0 0.00 0.00 0.00 23 1015.4
20260509231700 74 109 7.0 13.0 0.00 0.00 0.00 21 1015.4
20260509231600 74 69 7.0 13.0 0.00 0.00 0.00 22 1015.3
20260509231500 74 84 7.0 13.0 0.00 0.00 0.00 23 1015.3
20260509231437 74 71 6.0 13.0 0.00 0.00 0.00 23 1015.4
20260509231406 74 86 6.0 13.0 0.00 0.00 0.00 22 1015.4
20260509231155 74 60 5.0 13.0 0.00 0.00 0.00 21 1015.4
20260509231053 74 80 5.0 11.0 0.00 0.00 0.00 22 1015.4
20260509230953 74 83 5.0 11.0 0.00 0.00 0.00 21 1015.5
20260509230932 74 65 5.0 11.0 0.00 0.00 0.00 21 1015.5
20260509230853 74 76 5.0 11.0 0.00 0.00 0.00 21 1015.5
20260509230753 74 81 3.0 11.0 0.00 0.00 0.00 21 1015.6
20260509230654 74 67 3.0 11.0 0.00 0.00 0.00 21 1015.6
20260509230448 73 74 3.0 11.0 0.00 0.00 0.00 21 1015.6
20260509230425 73 127 3.0 11.0 0.00 0.00 0.00 21 1015.6
20260509230347 73 108 4.0 11.0 0.00 0.00 0.00 21 1015.5
20260509230246 73 107 3.0 11.0 0.00 0.00 0.00 22 1015.5
20260509230147 73 119 4.0 11.0 0.00 0.00 0.00 23 1015.4
20260509225940 73 69 4.0 11.0 0.00 0.00 0.00 24 1015.4
20260509225920 73 95 4.0 11.0 0.00 0.00 0.00 24 1015.4
20260509225840 73 104 5.0 11.0 0.00 0.00 0.00 22 1015.4
20260509225741 73 104 5.0 11.0 0.00 0.00 0.00 22 1015.4
20260509225635 73 101 6.0 11.0 0.00 0.00 0.00 22 1015.3
20260509225541 73 109 6.0 11.0 0.00 0.00 0.00 24 1015.3
20260509225414 73 127 6.0 11.0 0.00 0.00 0.00 21 1015.3
20260509225334 73 90 6.0 11.0 0.00 0.00 0.00 23 1015.3
20260509225235 73 127 7.0 12.0 0.00 0.00 0.00 22 1015.2
20260509225129 73 142 6.0 12.0 0.00 0.00 0.00 23 1015.2
20260509225037 73 119 6.0 12.0 0.00 0.00 0.00 23 1015.2
20260509224908 73 130 6.0 12.0 0.00 0.00 0.00 21 1015.2
20260509224830 73 111 5.0 12.0 0.00 0.00 0.00 22 1015.3
20260509224729 73 126 5.0 12.0 0.00 0.00 0.00 21 1015.2
20260509224622 73 104 4.0 12.0 0.00 0.00 0.00 23 1015.3
20260509224616 73 113 4.0 12.0 0.00 0.00 0.00 24 1015.3
20260509224323 73 130 4.0 12.0 0.00 0.00 0.00 23 1015.3
20260509224222 73 138 4.0 10.0 0.00 0.00 0.00 23 1015.3
20260509224119 73 150 4.0 10.0 0.00 0.00 0.00 23 1015.3
20260509224020 73 116 4.0 10.0 0.00 0.00 0.00 23 1015.3
20260509223919 73 107 4.0 10.0 0.00 0.00 0.00 24 1015.3
20260509223855 73 160 5.0 10.0 0.00 0.00 0.00 25 1015.2
20260509223820 73 125 5.0 10.0 0.00 0.00 0.00 26 1015.2
20260509223717 73 99 5.0 10.0 0.00 0.00 0.00 24 1015.2
20260509223613 73 147 5.0 10.0 0.00 0.00 0.00 24 1015.1
20260509223511 73 167 6.0 10.0 0.00 0.00 0.00 23 1015.1
20260509223456 73 134 6.0 10.0 0.00 0.00 0.00 23 1015.1
20260509223311 72 106 7.0 12.0 0.00 0.00 0.00 23 1014.9
20260509223210 72 123 6.0 12.0 0.00 0.00 0.00 23 1015.1
20260509223104 72 126 6.0 12.0 0.00 0.00 0.00 25 1015.1
20260509223006 72 80 6.0 12.0 0.00 0.00 0.00 23 1015.1
20260509222924 72 119 6.0 12.0 0.00 0.00 0.00 22 1015.1
20260509222917 73 105 6.0 12.0 0.00 0.00 0.00 23 1015.2
20260509222601 73 127 7.0 13.0 0.00 0.00 0.00 21 1015.2
20260509222458 73 107 7.0 13.0 0.00 0.00 0.00 21 1015.2
20260509222359 73 115 6.0 13.0 0.00 0.00 0.00 22 1015.2
20260509222338 73 106 6.0 13.0 0.00 0.00 0.00 22 1015.2
20260509222258 73 117 6.0 13.0 0.00 0.00 0.00 22 1015.2
20260509222200 73 75 6.0 13.0 0.00 0.00 0.00 22 1015.2
20260509221952 73 103 6.0 13.0 0.00 0.00 0.00 21 1015.2
20260509221853 73 96 6.0 13.0 0.00 0.00 0.00 21 1015.2
20260509221832 73 86 5.0 13.0 0.00 0.00 0.00 21 1015.2
20260509221753 73 81 5.0 13.0 0.00 0.00 0.00 21 1015.2
20260509221652 73 85 5.0 12.0 0.00 0.00 0.00 22 1015.2
20260509221546 73 94 5.0 10.0 0.00 0.00 0.00 21 1015.2
20260509221447 73 69 5.0 10.0 0.00 0.00 0.00 22 1015.2
20260509221358 73 62 5.0 10.0 0.00 0.00 0.00 22 1015.2
20260509221351 73 90 5.0 11.0 0.00 0.00 0.00 22 1015.2
20260509221146 73 87 6.0 15.0 0.00 0.00 0.00 24 1015.1
20260509221041 73 97 6.0 15.0 0.00 0.00 0.00 21 1015.1
20260509220941 73 86 6.0 15.0 0.00 0.00 0.00 21 1015.1
20260509220841 73 79 6.0 15.0 0.00 0.00 0.00 22 1015.1
20260509220819 73 97 6.0 15.0 0.00 0.00 0.00 22 1015.1
20260509220741 73 111 6.0 15.0 0.00 0.00 0.00 22 1015.1
20260509220640 73 83 6.0 15.0 0.00 0.00 0.00 21 1015.2
20260509220543 73 88 6.0 15.0 0.00 0.00 0.00 22 1015.2
20260509220337 73 57 4.0 15.0 0.00 0.00 0.00 22 1015.2
20260509220313 73 93 4.0 14.0 0.00 0.00 0.00 22 1015.2
20260509220236 73 65 3.0 12.0 0.00 0.00 0.00 22 1015.1
20260509220134 73 65 3.0 12.0 0.00 0.00 0.00 21 1015.2
20260509220037 73 80 3.0 9.0 0.00 0.00 0.00 20 1015.1
20260509215829 73 85 2.0 9.0 0.00 0.00 0.00 21 1015.1
20260509215808 73 92 2.0 8.0 0.00 0.00 0.00 20 1015.1
20260509215736 73 67 2.0 8.0 0.00 0.00 0.00 20 1015.1
20260509215529 73 96 3.0 8.0 0.00 0.00 0.00 21 1014.9
20260509215428 73 36 3.0 8.0 0.00 0.00 0.00 22 1014.9
20260509215327 73 88 4.0 9.0 0.00 0.00 0.00 24 1014.8
20260509215306 73 88 4.0 9.0 0.00 0.00 0.00 22 1014.8
20260509215226 73 88 5.0 9.0 0.00 0.00 0.00 22 1014.8
20260509215122 73 88 5.0 10.0 0.00 0.00 0.00 22 1014.9
20260509215020 73 88 5.0 10.0 0.00 0.00 0.00 21 1014.8
20260509214935 73 88 6.0 10.0 0.00 0.00 0.00 20 1014.8
20260509214928 73 85 6.0 12.0 0.00 0.00 0.00 20 1014.9
20260509214617 73 65 6.0 12.0 0.00 0.00 0.00 21 1014.9
20260509214517 73 44 6.0 12.0 0.00 0.00 0.00 20 1014.9
20260509214311 73 84 5.0 12.0 0.00 0.00 0.00 20 1014.8
20260509214249 73 69 5.0 12.0 0.00 0.00 0.00 20 1014.9
20260509214210 73 70 5.0 12.0 0.00 0.00 0.00 20 1014.9
20260509214111 73 57 5.0 12.0 0.00 0.00 0.00 21 1014.9
20260509213904 73 59 6.0 13.0 0.00 0.00 0.00 21 1014.9
20260509213804 73 93 6.0 13.0 0.00 0.00 0.00 21 1015.1
20260509213743 73 76 6.0 13.0 0.00 0.00 0.00 21 1015.1
20260509213704 73 89 6.0 13.0 0.00 0.00 0.00 21 1015.1
20260509213606 73 51 6.0 14.0 0.00 0.00 0.00 22 1014.9
20260509213506 73 34 7.0 14.0 0.00 0.00 0.00 22 1015.1
20260509213311 73 69 7.0 14.0 0.00 0.00 0.00 22 1015.1
20260509213305 73 84 7.0 14.0 0.00 0.00 0.00 22 1014.9
20260509213058 73 77 7.0 14.0 0.00 0.00 0.00 22 1014.8
20260509212952 73 55 6.0 14.0 0.00 0.00 0.00 22 1014.8
20260509212852 73 75 6.0 14.0 0.00 0.00 0.00 22 1014.9
20260509212812 73 32 6.0 14.0 0.00 0.00 0.00 22 1014.8
20260509212806 73 55 7.0 14.0 0.00 0.00 0.00 22 1014.8
20260509212346 73 72 6.0 11.0 0.00 0.00 0.00 21 1015.1
20260509212246 73 63 6.0 12.0 0.00 0.00 0.00 22 1015.1
20260509212226 73 65 6.0 12.0 0.00 0.00 0.00 22 1015.1
20260509212146 73 30 7.0 12.0 0.00 0.00 0.00 22 1015.2
20260509212047 73 98 7.0 13.0 0.00 0.00 0.00 22 1015.2
20260509211943 73 82 7.0 13.0 0.00 0.00 0.00 22 1015.2
20260509211842 73 78 7.0 13.0 0.00 0.00 0.00 22 1015.1
20260509211720 72 78 7.0 13.0 0.00 0.00 0.00 22 1015.2
20260509211647 72 51 7.0 13.0 0.00 0.00 0.00 22 1015.2
20260509211437 72 60 8.0 13.0 0.00 0.00 0.00 22 1015.2
20260509211334 72 92 8.0 13.0 0.00 0.00 0.00 22 1015.2
20260509211235 72 67 8.0 13.0 0.00 0.00 0.00 22 1015.2
20260509211215 72 71 8.0 13.0 0.00 0.00 0.00 22 1015.2
20260509211144 72 88 8.0 13.0 0.00 0.00 0.00 22 1015.2
20260509210828 72 75 9.0 17.0 0.00 0.00 0.00 21 1015.3
20260509210728 72 57 9.0 17.0 0.00 0.00 0.00 21 1015.3
20260509210708 72 67 9.0 17.0 0.00 0.00 0.00 21 1015.3
20260509210629 72 42 9.0 17.0 0.00 0.00 0.00 24 1015.2
20260509210528 72 14 10.0 17.0 0.00 0.00 0.00 23 1015.2
20260509210423 72 46 10.0 17.0 0.00 0.00 0.00 23 1015.2
20260509210323 72 41 10.0 17.0 0.00 0.00 0.00 23 1015.2
20260509210222 72 62 10.0 17.0 0.00 0.00 0.00 23 1015.2
20260509210201 72 36 10.0 17.0 0.00 0.00 0.00 23 1015.2
20260509210129 72 37 10.0 17.0 0.00 0.00 0.00 23 1015.2
20260509205916 72 52 10.0 18.0 0.00 0.00 0.00 22 1015.2
20260509205817 71 71 10.0 18.0 0.00 0.00 0.00 23 1015.2
20260509205716 71 24 10.0 18.0 0.00 0.00 0.00 22 1015.2
20260509205655 71 36 10.0 18.0 0.00 0.00 0.00 22 1015.2
20260509205616 71 55 10.0 18.0 0.00 0.00 0.00 23 1015.2
20260509205532 71 65 10.0 18.0 0.00 0.00 0.00 23 1015.3
20260509205313 71 55 10.0 18.0 0.00 0.00 0.00 24 1015.2
20260509205213 71 46 10.0 18.0 0.00 0.00 0.00 23 1015.2
20260509205150 71 10 10.0 18.0 0.00 0.00 0.00 23 1015.2
20260509205112 71 40 10.0 18.0 0.00 0.00 0.00 23 1015.2
20260509205012 71 59 10.0 17.0 0.00 0.00 0.00 23 1015.1
20260509204905 71 21 10.0 17.0 0.00 0.00 0.00 23 1015.2
20260509204806 71 57 11.0 18.0 0.00 0.00 0.00 23 1015.2
20260509204716 71 73 11.0 18.0 0.00 0.00 0.00 23 1015.2
20260509204709 71 33 11.0 18.0 0.00 0.00 0.00 23 1015.3
20260509204504 71 46 11.0 19.0 0.00 0.00 0.00 23 1015.3
20260509204405 71 34 11.0 19.0 0.00 0.00 0.00 22 1015.3
20260509204159 72 21 11.0 19.0 0.00 0.00 0.00 22 1015.3
20260509204139 72 38 10.0 19.0 0.00 0.00 0.00 22 1015.3
20260509204058 72 32 10.0 19.0 0.00 0.00 0.00 22 1015.3
20260509203959 72 46 10.0 19.0 0.00 0.00 0.00 22 1015.3
20260509203853 72 48 10.0 19.0 0.00 0.00 0.00 22 1015.3
20260509203753 73 44 10.0 19.0 0.00 0.00 0.00 22 1015.3
20260509203738 73 48 9.0 19.0 0.00 0.00 0.00 22 1015.3
20260509203553 73 65 9.0 16.0 0.00 0.00 0.00 21 1015.3
20260509203452 73 18 9.0 16.0 0.00 0.00 0.00 22 1015.4
20260509203346 73 48 9.0 16.0 0.00 0.00 0.00 21 1015.3
20260509203248 73 34 10.0 16.0 0.00 0.00 0.00 22 1015.3
20260509203147 74 29 10.0 16.0 0.00 0.00 0.00 22 1015.4
20260509203131 73 338 10.0 21.0 0.00 0.00 0.00 22 1015.4
20260509203048 74 72 11.0 21.0 0.00 0.00 0.00 22 1015.4
20260509202947 74 22 11.0 21.0 0.00 0.00 0.00 21 1015.5
20260509202742 74 38 11.0 21.0 0.00 0.00 0.00 21 1015.5
20260509202640 74 37 12.0 21.0 0.00 0.00 0.00 21 1015.4
20260509202631 74 44 12.0 21.0 0.00 0.00 0.00 21 1015.4
20260509202540 74 18 12.0 21.0 0.00 0.00 0.00 22 1015.4
20260509202459 74 11 12.0 21.0 0.00 0.00 0.00 23 1015.4
20260509202131 74 71 11.0 20.0 0.00 0.00 0.00 22 1015.4
20260509202035 74 44 12.0 18.0 0.00 0.00 0.00 22 1015.4
20260509201934 74 32 12.0 18.0 0.00 0.00 0.00 21 1015.4
20260509201830 74 64 12.0 18.0 0.00 0.00 0.00 21 1015.4
20260509201742 74 45 12.0 18.0 0.00 0.00 0.00 21 1015.5
20260509201630 74 53 11.0 17.0 0.00 0.00 0.00 21 1015.5
20260509201531 74 24 11.0 17.0 0.00 0.00 0.00 21 1015.5
20260509201428 74 78 11.0 17.0 0.00 0.00 0.00 21 1015.4
20260509201330 74 45 11.0 17.0 0.00 0.00 0.00 22 1015.4
20260509201130 74 31 11.0 17.0 0.00 0.00 0.00 21 1015.5
20260509201122 74 37 11.0 17.0 0.00 0.00 0.00 20 1015.5
20260509201022 74 67 11.0 17.0 0.00 0.00 0.00 20 1015.5
20260509200924 74 64 10.0 17.0 0.00 0.00 0.00 19 1015.6
20260509200824 75 65 9.0 17.0 0.00 0.00 0.00 20 1015.6
20260509200630 75 80 9.0 17.0 0.00 0.00 0.00 20 1015.6
20260509200624 75 84 9.0 17.0 0.00 0.00 0.00 21 1015.6
20260509200416 76 57 9.0 17.0 0.00 0.00 0.00 21 1015.6
20260509200311 75 81 9.0 17.0 0.00 0.00 0.00 22 1015.6
20260509200210 75 29 9.0 17.0 0.00 0.00 0.00 21 1015.6
20260509200128 75 76 9.0 17.0 0.00 0.00 0.00 23 1015.6
20260509200111 75 43 9.0 17.0 0.00 0.00 0.00 22 1015.6
20260509200012 75 74 8.0 15.0 0.00 0.00 0.00 22 1015.6
20260509195911 75 58 8.0 15.0 0.00 0.00 0.00 22 1015.6
20260509195715 75 32 9.0 15.0 0.00 0.00 0.00 22 1015.6
20260509195708 74 32 9.0 15.0 0.00 0.00 0.00 22 1015.8
20260509195504 74 79 9.0 15.0 0.00 0.00 0.00 22 1015.8
20260509195405 74 91 8.0 15.0 0.00 0.00 0.00 23 1015.8
20260509195259 74 49 8.0 13.0 0.00 0.00 0.00 21 1015.8
20260509195158 74 63 8.0 15.0 0.00 0.00 0.00 20 1015.8
20260509195126 74 75 9.0 15.0 0.00 0.00 0.00 20 1015.8
20260509195058 74 63 9.0 15.0 0.00 0.00 0.00 19 1015.8
20260509194958 74 90 9.0 15.0 0.00 0.00 0.00 21 1015.8
20260509194859 74 69 10.0 16.0 0.00 0.00 0.00 23 1015.8
20260509194752 74 74 10.0 18.0 0.00 0.00 0.00 22 1015.9
20260509194652 74 28 9.0 18.0 0.00 0.00 0.00 23 1015.9
20260509194625 74 63 9.0 18.0 0.00 0.00 0.00 22 1015.9
20260509194553 74 80 9.0 18.0 0.00 0.00 0.00 22 1015.9
20260509194453 74 71 9.0 18.0 0.00 0.00 0.00 22 1015.9
20260509194401 74 51 9.0 18.0 0.00 0.00 0.00 22 1015.9
20260509194151 74 57 9.0 18.0 0.00 0.00 0.00 22 1015.9
20260509194126 74 55 9.0 18.0 0.00 0.00 0.00 22 1015.9
20260509194051 74 97 10.0 18.0 0.00 0.00 0.00 22 1015.9
20260509193951 74 69 10.0 18.0 0.00 0.00 0.00 22 1015.9
20260509193850 74 57 10.0 17.0 0.00 0.00 0.00 23 1015.8
20260509193809 74 42 10.0 17.0 0.00 0.00 0.00 23 1015.8
20260509193656 74 42 10.0 17.0 0.00 0.00 0.00 26 1015.9
20260509193457 73 26 11.0 17.0 0.00 0.00 0.00 24 1015.9
20260509193251 73 35 11.0 17.0 0.00 0.00 0.00 24 1015.9
20260509193150 73 55 10.0 17.0 0.00 0.00 0.00 24 1016.0
20260509193125 73 21 10.0 17.0 0.00 0.00 0.00 24 1016.0
20260509193050 73 34 10.0 17.0 0.00 0.00 0.00 23 1015.9
20260509192951 74 44 10.0 16.0 0.00 0.00 0.00 23 1015.9
20260509192851 74 51 9.0 16.0 0.00 0.00 0.00 22 1015.9
20260509192750 74 51 9.0 16.0 0.00 0.00 0.00 22 1016.0
20260509192655 74 50 9.0 16.0 0.00 0.00 0.00 21 1015.9
20260509192648 74 33 9.0 16.0 0.00 0.00 0.00 21 1015.9
20260509192444 75 34 8.0 16.0 0.00 0.00 0.00 22 1015.9
20260509192344 75 46 8.0 15.0 0.00 0.00 0.00 22 1015.9
20260509192245 75 65 8.0 15.0 0.00 0.00 0.00 22 1015.9
20260509192145 75 70 7.0 15.0 0.00 0.00 0.00 25 1015.9
20260509192126 75 78 7.0 15.0 0.00 0.00 0.00 25 1015.9
20260509192039 75 83 7.0 15.0 0.00 0.00 0.00 21 1016.0
20260509191938 76 82 8.0 15.0 0.00 0.00 0.00 23 1016.1
20260509191839 76 82 8.0 15.0 0.00 0.00 0.00 21 1016.0
20260509191740 76 51 7.0 15.0 0.00 0.00 0.00 22 1016.0
20260509191638 76 71 7.0 15.0 0.00 0.00 0.00 22 1016.0
20260509191624 76 65 7.0 15.0 0.00 0.00 0.00 22 1016.0
20260509191534 76 76 6.0 15.0 0.00 0.00 0.00 22 1016.0
20260509191433 76 59 6.0 15.0 0.00 0.00 0.00 23 1016.0
20260509191332 76 49 6.0 15.0 0.00 0.00 0.00 22 1016.0
20260509191233 76 10 6.0 13.0 0.00 0.00 0.00 24 1016.0
20260509191137 76 5 7.0 13.0 0.00 0.00 0.00 24 1016.1
20260509191130 76 51 7.0 13.0 0.00 0.00 0.00 24 1016.1
20260509190926 76 73 7.0 16.0 0.00 0.00 0.00 22 1016.0
20260509190826 75 103 7.0 16.0 0.00 0.00 0.00 22 1016.0
20260509190724 75 74 7.0 16.0 0.00 0.00 0.00 25 1016.0
20260509190624 75 94 7.0 16.0 0.00 0.00 0.00 23 1016.0
20260509190518 75 88 7.0 16.0 0.00 0.00 0.00 23 1016.1
20260509190419 75 67 7.0 16.0 0.00 0.00 0.00 22 1016.1
20260509190320 75 92 7.0 16.0 0.00 0.00 0.00 22 1016.2
20260509190230 75 67 7.0 16.0 0.00 0.00 0.00 23 1016.2
20260509190119 75 58 7.0 16.0 0.00 0.00 0.00 24 1016.2
20260509190014 75 72 6.0 13.0 0.00 0.00 0.00 22 1016.1
20260509185912 75 93 6.0 13.0 0.00 0.00 0.00 22 1016.1
20260509185820 74 108 6.0 13.0 0.00 0.00 0.00 25 1016.1
20260509185613 74 115 7.0 13.0 0.00 0.00 0.00 26 1016.2
20260509185508 74 155 7.0 13.0 0.00 0.00 0.00 23 1016.2
20260509185407 74 90 7.0 13.0 0.00 0.00 0.00 23 1016.4
20260509185308 74 49 7.0 13.0 0.00 0.00 0.00 23 1016.2
20260509185208 74 30 7.0 13.0 0.00 0.00 0.00 23 1016.4
20260509185106 74 49 8.0 13.0 0.00 0.00 0.00 23 1016.4
20260509185002 74 49 8.0 16.0 0.00 0.00 0.00 24 1016.4
20260509184902 74 88 8.0 16.0 0.00 0.00 0.00 24 1016.4
20260509184803 74 119 9.0 16.0 0.00 0.00 0.00 25 1016.4
20260509184702 74 74 9.0 16.0 0.00 0.00 0.00 25 1016.2
20260509184600 73 101 9.0 16.0 0.00 0.00 0.00 24 1016.2
20260509184512 73 95 9.0 16.0 0.00 0.00 0.00 24 1016.2
20260509184206 73 65 9.0 16.0 0.00 0.00 0.00 24 1016.4
20260509184052 73 56 9.0 16.0 0.00 0.00 0.00 25 1016.4
20260509183958 74 75 8.0 15.0 0.00 0.00 0.00 23 1016.4
20260509183900 74 33 8.0 15.0 0.00 0.00 0.00 24 1016.4
20260509183800 74 63 8.0 16.0 0.00 0.00 0.00 24 1016.4
20260509183700 74 76 8.0 16.0 0.00 0.00 0.00 24 1016.5
20260509183559 74 47 8.0 16.0 0.00 0.00 0.00 25 1016.4
20260509183548 74 86 8.0 16.0 0.00 0.00 0.00 26 1016.5
20260509183459 73 70 8.0 16.0 0.00 0.00 0.00 26 1016.5
20260509183358 73 42 9.0 16.0 0.00 0.00 0.00 24 1016.4
20260509183259 73 76 9.0 19.0 0.00 0.00 0.00 25 1016.5
20260509183159 73 59 10.0 19.0 0.00 0.00 0.00 24 1016.5
20260509183058 74 70 10.0 19.0 0.00 0.00 0.00 24 1016.4
20260509183048 74 65 10.0 19.0 0.00 0.00 0.00 24 1016.5
20260509182959 74 68 10.0 19.0 0.00 0.00 0.00 24 1016.5
20260509182858 74 342 10.0 19.0 0.00 0.00 0.00 23 1016.4
20260509182755 75 61 10.0 19.0 0.00 0.00 0.00 25 1016.4
20260509182655 75 57 10.0 19.0 0.00 0.00 0.00 25 1016.4
20260509182554 75 34 10.0 19.0 0.00 0.00 0.00 23 1016.5
20260509182547 75 59 10.0 19.0 0.00 0.00 0.00 23 1016.4
20260509182454 75 73 10.0 19.0 0.00 0.00 0.00 23 1016.4
20260509182355 76 92 9.0 19.0 0.00 0.00 0.00 23 1016.4
20260509182301 76 66 9.0 19.0 0.00 0.00 0.00 23 1016.4
20260509182056 76 71 8.0 15.0 0.00 0.00 0.00 22 1016.2
20260509182048 76 80 8.0 15.0 0.00 0.00 0.00 22 1016.2
20260509181954 76 71 8.0 15.0 0.00 0.00 0.00 22 1016.2
20260509181854 76 77 8.0 15.0 0.00 0.00 0.00 22 1016.2
20260509181755 76 96 7.0 13.0 0.00 0.00 0.00 23 1016.2
20260509181703 76 50 7.0 14.0 0.00 0.00 0.00 24 1016.2
20260509181655 76 31 7.0 14.0 0.00 0.00 0.00 25 1016.4
20260509181455 76 57 7.0 15.0 0.00 0.00 0.00 25 1016.4
20260509181354 76 96 8.0 15.0 0.00 0.00 0.00 23 1016.2
20260509181255 76 112 8.0 20.0 0.00 0.00 0.00 24 1016.4
20260509181155 77 47 9.0 21.0 0.00 0.00 0.00 24 1016.4
20260509181051 77 39 8.0 21.0 0.00 0.00 0.00 24 1016.4
20260509180950 77 42 8.0 21.0 0.00 0.00 0.00 26 1016.4
20260509180850 77 346 9.0 21.0 0.00 0.00 0.00 22 1016.4
20260509180751 76 355 9.0 21.0 0.00 0.00 0.00 19 1016.5
20260509180651 76 340 9.0 21.0 0.00 0.00 0.00 19 1016.2
20260509180551 76 27 9.0 21.0 0.00 0.00 0.00 18 1016.5
20260509180450 76 290 9.0 21.0 0.00 0.00 0.00 16 1016.5
20260509180356 76 306 8.0 21.0 0.00 0.00 0.00 16 1016.2
20260509180201 76 254 8.0 16.0 0.00 0.00 0.00 16 1016.4
20260509180050 76 271 9.0 16.0 0.00 0.00 0.00 19 1016.4
20260509175950 76 277 9.0 16.0 0.00 0.00 0.00 16 1016.4
20260509175851 76 276 10.0 16.0 0.00 0.00 0.00 16 1016.4
20260509175750 76 312 10.0 16.0 0.00 0.00 0.00 15 1016.5
20260509175703 76 292 10.0 16.0 0.00 0.00 0.00 16 1016.4
20260509175550 75 275 10.0 16.0 0.00 0.00 0.00 15 1016.5
20260509175451 75 306 10.0 16.0 0.00 0.00 0.00 18 1016.5
20260509175350 75 281 9.0 16.0 0.00 0.00 0.00 16 1016.5
20260509175258 75 286 9.0 16.0 0.00 0.00 0.00 15 1016.5
20260509175050 75 279 9.0 17.0 0.00 0.00 0.00 15 1016.4
20260509174952 75 267 9.0 17.0 0.00 0.00 0.00 15 1016.4
20260509174851 75 298 9.0 17.0 0.00 0.00 0.00 16 1016.4
20260509174750 75 306 8.0 17.0 0.00 0.00 0.00 17 1016.5
20260509174652 75 286 8.0 17.0 0.00 0.00 0.00 18 1016.5
20260509174550 75 294 8.0 17.0 0.00 0.00 0.00 20 1016.6
20260509174450 75 350 8.0 17.0 0.00 0.00 0.00 17 1016.5
20260509174352 75 277 9.0 17.0 0.00 0.00 0.00 17 1016.5
20260509174251 75 5 8.0 17.0 0.00 0.00 0.00 18 1016.2
20260509174150 75 11 8.0 17.0 0.00 0.00 0.00 18 1016.2
20260509174050 75 292 7.0 14.0 0.00 0.00 0.00 19 1016.2
20260509173950 75 261 7.0 14.0 0.00 0.00 0.00 16 1016.1
20260509173851 75 304 7.0 14.0 0.00 0.00 0.00 17 1016.4
20260509173757 75 327 8.0 16.0 0.00 0.00 0.00 18 1016.1
20260509173600 75 268 10.0 18.0 0.00 0.00 0.00 16 1016.2
20260509173350 75 244 10.0 21.0 0.00 0.00 0.00 19 1016.2
20260509173250 75 272 11.0 23.0 0.00 0.00 0.00 18 1016.4
20260509173150 75 300 11.0 23.0 0.00 0.00 0.00 21 1016.4
20260509173052 75 340 11.0 23.0 0.00 0.00 0.00 18 1016.4
20260509173045 75 340 12.0 23.0 0.00 0.00 0.00 18 1016.4
20260509172951 75 296 12.0 23.0 0.00 0.00 0.00 18 1016.4
20260509172850 76 335 11.0 23.0 0.00 0.00 0.00 17 1016.2
20260509172750 76 306 10.0 23.0 0.00 0.00 0.00 18 1016.2
20260509172652 76 304 10.0 23.0 0.00 0.00 0.00 19 1016.2
20260509172553 76 286 9.0 23.0 0.00 0.00 0.00 18 1016.1
20260509172546 76 286 9.0 23.0 0.00 0.00 0.00 17 1016.1
20260509172457 76 280 8.0 23.0 0.00 0.00 0.00 18 1016.2
20260509172247 76 252 7.0 22.0 0.00 0.00 0.00 17 1016.4
20260509172146 76 248 6.0 16.0 0.00 0.00 0.00 19 1016.5
20260509172050 75 240 5.0 12.0 0.00 0.00 0.00 19 1016.4
20260509172046 75 273 5.0 12.0 0.00 0.00 0.00 19 1016.4
20260509171946 75 282 5.0 12.0 0.00 0.00 0.00 17 1016.4
20260509171847 75 289 4.0 12.0 0.00 0.00 0.00 18 1016.5
20260509171746 75 234 4.0 12.0 0.00 0.00 0.00 16 1016.5
20260509171700 75 286 4.0 10.0 0.00 0.00 0.00 16 1016.5
20260509171652 75 254 4.0 10.0 0.00 0.00 0.00 17 1016.6
20260509171453 75 280 4.0 10.0 0.00 0.00 0.00 18 1016.4
20260509171244 75 284 4.0 10.0 0.00 0.00 0.00 19 1016.5
20260509171152 75 109 5.0 13.0 0.00 0.00 0.00 21 1016.5
20260509171040 74 109 6.0 13.0 0.00 0.00 0.00 21 1016.5
20260509170938 74 120 6.0 13.0 0.00 0.00 0.00 19 1016.4
20260509170838 74 42 6.0 13.0 0.00 0.00 0.00 21 1016.5
20260509170738 74 43 7.0 13.0 0.00 0.00 0.00 20 1016.5
20260509170639 74 43 7.0 13.0 0.00 0.00 0.00 19 1016.5
20260509170546 74 70 7.0 14.0 0.00 0.00 0.00 20 1016.4
20260509170539 74 71 7.0 14.0 0.00 0.00 0.00 20 1016.4
20260509170439 75 38 7.0 14.0 0.00 0.00 0.00 21 1016.4
20260509170346 75 39 6.0 14.0 0.00 0.00 0.00 20 1016.5
20260509170139 75 355 5.0 14.0 0.00 0.00 0.00 21 1016.4
20260509170051 75 34 5.0 14.0 0.00 0.00 0.00 22 1016.4
20260509170046 75 38 5.0 14.0 0.00 0.00 0.00 22 1016.4
20260509165835 75 5 4.0 14.0 0.00 0.00 0.00 21 1016.0
20260509165734 75 80 3.0 14.0 0.00 0.00 0.00 19 1016.0
20260509165634 75 96 3.0 14.0 0.00 0.00 0.00 18 1016.2
20260509165547 75 67 3.0 9.0 0.00 0.00 0.00 18 1016.2
20260509165534 75 57 3.0 9.0 0.00 0.00 0.00 18 1016.2
20260509165440 75 80 3.0 11.0 0.00 0.00 0.00 18 1016.1
20260509165252 75 277 5.0 12.0 0.00 0.00 0.00 18 1016.2
20260509165138 75 287 5.0 12.0 0.00 0.00 0.00 18 1016.2
20260509164937 75 355 6.0 12.0 0.00 0.00 0.00 19 1016.2
20260509164832 75 67 7.0 16.0 0.00 0.00 0.00 18 1016.2
20260509164732 75 12 8.0 16.0 0.00 0.00 0.00 21 1016.2
20260509164637 74 5 8.0 17.0 0.00 0.00 0.00 22 1016.4
20260509164630 74 308 8.0 17.0 0.00 0.00 0.00 22 1016.2
20260509164433 74 13 8.0 17.0 0.00 0.00 0.00 20 1016.2
20260509164226 74 22 7.0 17.0 0.00 0.00 0.00 21 1016.2
20260509164144 74 5 8.0 17.0 0.00 0.00 0.00 20 1016.2
20260509164137 74 344 8.0 17.0 0.00 0.00 0.00 22 1016.2
20260509163826 74 304 6.0 17.0 0.00 0.00 0.00 18 1016.2
20260509163726 74 338 6.0 17.0 0.00 0.00 0.00 18 1016.2
20260509163626 74 300 5.0 11.0 0.00 0.00 0.00 18 1016.2
20260509163544 74 348 5.0 11.0 0.00 0.00 0.00 20 1016.2
20260509163526 74 333 5.0 11.0 0.00 0.00 0.00 20 1016.2
20260509163422 74 332 5.0 11.0 0.00 0.00 0.00 18 1016.2
20260509163322 74 9 5.0 11.0 0.00 0.00 0.00 18 1016.1
20260509163222 74 54 4.0 11.0 0.00 0.00 0.00 18 1016.1
20260509163122 74 57 4.0 11.0 0.00 0.00 0.00 18 1016.1
20260509163045 74 24 3.0 11.0 0.00 0.00 0.00 18 1016.2
20260509163023 74 35 3.0 11.0 0.00 0.00 0.00 18 1016.2
20260509162923 74 37 3.0 11.0 0.00 0.00 0.00 22 1016.1
20260509162824 74 351 3.0 10.0 0.00 0.00 0.00 20 1016.2
20260509162722 74 45 3.0 10.0 0.00 0.00 0.00 20 1016.2
20260509162714 73 38 3.0 9.0 0.00 0.00 0.00 22 1016.1
20260509162603 73 96 3.0 9.0 0.00 0.00 0.00 19 1016.2
20260509162448 73 101 3.0 8.0 0.00 0.00 0.00 19 1016.2
20260509161923 73 350 3.0 8.0 0.00 0.00 0.00 20 1016.4
20260509161822 73 355 3.0 8.0 0.00 0.00 0.00 21 1016.4
20260509161729 73 296 3.0 8.0 0.00 0.00 0.00 21 1016.4
20260509161545 73 322 3.0 8.0 0.00 0.00 0.00 19 1016.4
20260509161520 72 322 3.0 8.0 0.00 0.00 0.00 19 1016.4
20260509161418 72 322 3.0 8.0 0.00 0.00 0.00 19 1016.4
20260509161318 72 15 3.0 8.0 0.00 0.00 0.00 20 1016.4
20260509161218 72 92 3.0 8.0 0.00 0.00 0.00 19 1016.4
20260509161130 72 9 3.0 8.0 0.00 0.00 0.00 19 1016.4
20260509161123 72 9 3.0 8.0 0.00 0.00 0.00 19 1016.5
20260509160918 73 292 3.0 11.0 0.00 0.00 0.00 18 1016.4
20260509160818 73 302 4.0 11.0 0.00 0.00 0.00 19 1016.4
20260509160718 72 10 4.0 11.0 0.00 0.00 0.00 18 1016.2
20260509160618 72 5 4.0 11.0 0.00 0.00 0.00 21 1016.4
20260509160518 72 5 4.0 11.0 0.00 0.00 0.00 21 1016.4
20260509160418 72 347 4.0 11.0 0.00 0.00 0.00 21 1016.4
20260509160318 72 323 4.0 11.0 0.00 0.00 0.00 19 1016.4
20260509160217 72 278 4.0 11.0 0.00 0.00 0.00 21 1016.2
20260509160118 72 255 5.0 11.0 0.00 0.00 0.00 18 1016.4
20260509160044 72 263 5.0 11.0 0.00 0.00 0.00 18 1016.4
20260509160018 72 284 5.0 11.0 0.00 0.00 0.00 19 1016.4
20260509155919 72 268 5.0 11.0 0.00 0.00 0.00 19 1016.4
20260509155902 72 314 5.0 13.0 0.00 0.00 0.00 21 1016.4
20260509155515 71 30 5.0 13.0 0.00 0.00 0.00 22 1016.4
20260509155414 71 307 5.0 13.0 0.00 0.00 0.00 20 1016.2
20260509155313 71 313 5.0 13.0 0.00 0.00 0.00 21 1016.2
20260509155214 71 294 5.0 13.0 0.00 0.00 0.00 19 1016.4
20260509155115 71 302 5.0 13.0 0.00 0.00 0.00 19 1016.4
20260509155041 71 322 5.0 13.0 0.00 0.00 0.00 19 1016.4
20260509155014 72 315 5.0 13.0 0.00 0.00 0.00 19 1016.4
20260509154914 72 325 5.0 13.0 0.00 0.00 0.00 20 1016.4
20260509154814 71 306 5.0 13.0 0.00 0.00 0.00 21 1016.4
20260509154714 71 324 5.0 13.0 0.00 0.00 0.00 22 1016.2
20260509154614 71 344 5.0 13.0 0.00 0.00 0.00 20 1016.4
20260509154539 71 5 5.0 13.0 0.00 0.00 0.00 19 1016.4
20260509154514 71 297 5.0 13.0 0.00 0.00 0.00 19 1016.4
20260509154414 71 311 5.0 13.0 0.00 0.00 0.00 21 1016.4
20260509154315 71 336 5.0 13.0 0.00 0.00 0.00 20 1016.4
20260509154213 71 311 5.0 13.0 0.00 0.00 0.00 20 1016.5
20260509154115 71 332 5.0 10.0 0.00 0.00 0.00 20 1016.2
20260509154040 71 312 5.0 10.0 0.00 0.00 0.00 23 1016.2
20260509154014 71 277 5.0 10.0 0.00 0.00 0.00 23 1016.2
20260509153915 71 0 5.0 10.0 0.00 0.00 0.00 20 1016.2
20260509153815 71 347 5.0 10.0 0.00 0.00 0.00 21 1016.4
20260509153710 71 325 4.0 10.0 0.00 0.00 0.00 18 1016.4
20260509153610 71 349 4.0 10.0 0.00 0.00 0.00 19 1016.5
20260509153540 71 330 4.0 10.0 0.00 0.00 0.00 19 1016.4
20260509153509 71 318 4.0 8.0 0.00 0.00 0.00 20 1016.4
20260509153410 71 317 4.0 8.0 0.00 0.00 0.00 20 1016.4
20260509153311 71 303 4.0 11.0 0.00 0.00 0.00 19 1016.4
20260509153229 71 11 4.0 11.0 0.00 0.00 0.00 22 1016.4
20260509153114 70 333 4.0 11.0 0.00 0.00 0.00 23 1016.4
20260509152911 70 304 4.0 11.0 0.00 0.00 0.00 21 1016.4
20260509152810 70 336 4.0 11.0 0.00 0.00 0.00 21 1016.4
20260509152753 70 271 5.0 11.0 0.00 0.00 0.00 20 1016.4
20260509152511 70 310 5.0 11.0 0.00 0.00 0.00 21 1016.4
20260509152411 69 242 4.0 11.0 0.00 0.00 0.00 20 1016.4
20260509152310 69 315 4.0 11.0 0.00 0.00 0.00 20 1016.5
20260509152218 69 344 3.0 10.0 0.00 0.00 0.00 21 1016.5
20260509152040 69 336 3.0 8.0 0.00 0.00 0.00 21 1016.5
20260509152021 69 341 3.0 8.0 0.00 0.00 0.00 20 1016.5
20260509151706 69 304 2.0 8.0 0.00 0.00 0.00 20 1016.6
20260509151606 69 293 3.0 8.0 0.00 0.00 0.00 21 1016.6
20260509151539 69 285 2.0 8.0 0.00 0.00 0.00 23 1016.5
20260509151507 69 251 2.0 8.0 0.00 0.00 0.00 23 1016.5
20260509151413 69 295 3.0 8.0 0.00 0.00 0.00 21 1016.6
20260509151206 69 275 3.0 8.0 0.00 0.00 0.00 21 1016.7
20260509151107 68 302 4.0 10.0 0.00 0.00 0.00 21 1016.6
20260509151035 68 301 4.0 12.0 0.00 0.00 0.00 22 1016.6
20260509151006 68 315 4.0 13.0 0.00 0.00 0.00 22 1016.6
20260509150907 68 262 5.0 13.0 0.00 0.00 0.00 20 1016.7
20260509150813 68 267 5.0 13.0 0.00 0.00 0.00 19 1016.7
20260509150607 67 276 7.0 19.0 0.00 0.00 0.00 19 1016.7
20260509150537 67 246 8.0 19.0 0.00 0.00 0.00 20 1016.7
20260509150506 67 260 8.0 19.0 0.00 0.00 0.00 20 1016.7
20260509150406 67 298 8.0 19.0 0.00 0.00 0.00 20 1016.7
20260509150312 67 252 8.0 19.0 0.00 0.00 0.00 19 1016.7
20260509150104 67 315 9.0 19.0 0.00 0.00 0.00 21 1016.7
20260509150035 67 273 9.0 19.0 0.00 0.00 0.00 21 1016.7
20260509150003 67 254 9.0 19.0 0.00 0.00 0.00 20 1016.7
20260509145900 67 284 9.0 19.0 0.00 0.00 0.00 21 1016.7
20260509145800 67 301 9.0 19.0 0.00 0.00 0.00 22 1016.7
20260509145658 66 251 8.0 19.0 0.00 0.00 0.00 22 1016.7
20260509145558 66 243 9.0 18.0 0.00 0.00 0.00 22 1016.7
20260509145535 66 274 9.0 18.0 0.00 0.00 0.00 22 1016.7
20260509145459 66 256 9.0 18.0 0.00 0.00 0.00 23 1016.7
20260509145253 65 278 9.0 18.0 0.00 0.00 0.00 23 1016.6
20260509145151 65 278 10.0 18.0 0.00 0.00 0.00 23 1016.7
20260509145052 65 297 9.0 18.0 0.00 0.00 0.00 23 1016.7
20260509145033 65 248 9.0 18.0 0.00 0.00 0.00 23 1016.6
20260509144952 65 286 9.0 18.0 0.00 0.00 0.00 23 1016.6
20260509144752 64 259 10.0 18.0 0.00 0.00 0.00 25 1016.6
20260509144651 64 215 10.0 18.0 0.00 0.00 0.00 25 1016.6
20260509144552 64 262 10.0 17.0 0.00 0.00 0.00 26 1016.6
20260509144534 64 209 10.0 17.0 0.00 0.00 0.00 26 1016.5
20260509144451 64 272 10.0 17.0 0.00 0.00 0.00 26 1016.5
20260509144350 64 294 10.0 23.0 0.00 0.00 0.00 26 1016.5
20260509144250 64 276 10.0 23.0 0.00 0.00 0.00 26 1016.5
20260509144150 63 258 11.0 23.0 0.00 0.00 0.00 26 1016.5
20260509144050 63 275 11.0 23.0 0.00 0.00 0.00 27 1016.6
20260509144035 63 291 11.0 23.0 0.00 0.00 0.00 27 1016.6
20260509143949 63 259 11.0 23.0 0.00 0.00 0.00 26 1016.6
20260509143851 63 250 11.0 23.0 0.00 0.00 0.00 26 1016.6
20260509143749 62 235 11.0 23.0 0.00 0.00 0.00 26 1016.5
20260509143648 62 252 12.0 23.0 0.00 0.00 0.00 26 1016.4
20260509143549 62 221 12.0 23.0 0.00 0.00 0.00 27 1016.6
20260509143531 62 311 12.0 23.0 0.00 0.00 0.00 27 1016.6
20260509143449 62 284 11.0 23.0 0.00 0.00 0.00 29 1016.4
20260509143348 61 319 11.0 21.0 0.00 0.00 0.00 29 1016.4
20260509143249 61 269 11.0 21.0 0.00 0.00 0.00 29 1016.4
20260509143148 60 235 11.0 21.0 0.00 0.00 0.00 30 1016.4
20260509143058 60 292 11.0 21.0 0.00 0.00 0.00 30 1016.4
20260509143051 60 268 11.0 21.0 0.00 0.00 0.00 30 1016.4
20260509142846 60 265 10.0 21.0 0.00 0.00 0.00 30 1016.4
20260509142746 59 243 10.0 21.0 0.00 0.00 0.00 31 1016.4
20260509142646 59 276 10.0 21.0 0.00 0.00 0.00 30 1016.2
20260509142558 59 280 10.0 21.0 0.00 0.00 0.00 30 1016.4
20260509142550 59 287 10.0 21.0 0.00 0.00 0.00 31 1016.4
20260509142346 59 255 11.0 21.0 0.00 0.00 0.00 30 1016.2
20260509142245 59 248 11.0 21.0 0.00 0.00 0.00 30 1016.5
20260509142147 59 259 11.0 21.0 0.00 0.00 0.00 31 1016.2
20260509142052 59 263 12.0 21.0 0.00 0.00 0.00 31 1016.4
20260509142046 59 250 12.0 21.0 0.00 0.00 0.00 31 1016.4
20260509141839 59 275 12.0 23.0 0.00 0.00 0.00 31 1016.2
20260509141740 59 257 12.0 23.0 0.00 0.00 0.00 31 1016.4
20260509141643 59 293 12.0 23.0 0.00 0.00 0.00 31 1016.4
20260509141636 59 252 12.0 23.0 0.00 0.00 0.00 31 1016.2
20260509141436 59 234 12.0 23.0 0.00 0.00 0.00 31 1016.2
20260509141336 59 284 12.0 23.0 0.00 0.00 0.00 31 1016.4
20260509141232 59 263 12.0 23.0 0.00 0.00 0.00 31 1016.4
20260509141132 59 246 11.0 23.0 0.00 0.00 0.00 31 1016.4
20260509141030 59 276 11.0 23.0 0.00 0.00 0.00 31 1016.4
20260509140924 59 223 10.0 20.0 0.00 0.00 0.00 32 1016.4
20260509140823 58 269 10.0 20.0 0.00 0.00 0.00 32 1016.4
20260509140733 58 276 10.0 20.0 0.00 0.00 0.00 32 1016.4
20260509140523 58 285 10.0 20.0 0.00 0.00 0.00 32 1016.4
20260509140425 58 255 9.0 20.0 0.00 0.00 0.00 32 1016.4
20260509140222 58 228 9.0 16.0 0.00 0.00 0.00 32 1016.4
20260509140129 58 279 9.0 15.0 0.00 0.00 0.00 32 1016.4
20260509140122 58 276 9.0 15.0 0.00 0.00 0.00 33 1016.5
20260509135915 58 260 9.0 15.0 0.00 0.00 0.00 32 1016.5
20260509135814 58 244 8.0 15.0 0.00 0.00 0.00 33 1016.5
20260509135714 58 265 7.0 14.0 0.00 0.00 0.00 33 1016.5
20260509135624 58 278 7.0 14.0 0.00 0.00 0.00 33 1016.5
20260509135618 58 267 6.0 14.0 0.00 0.00 0.00 33 1016.5
20260509135307 58 275 5.0 14.0 0.00 0.00 0.00 34 1016.5
20260509135207 58 254 4.0 14.0 0.00 0.00 0.00 34 1016.5
20260509135118 58 238 4.0 14.0 0.00 0.00 0.00 34 1016.5
20260509135007 58 288 3.0 13.0 0.00 0.00 0.00 34 1016.5
20260509134801 58 290 2.0 8.0 0.00 0.00 0.00 35 1016.5
20260509134700 58 291 3.0 8.0 0.00 0.00 0.00 35 1016.5
20260509134622 58 158 2.0 8.0 0.00 0.00 0.00 34 1016.5
20260509134510 58 296 3.0 8.0 0.00 0.00 0.00 35 1016.6
20260509134201 57 288 4.0 13.0 0.00 0.00 0.00 36 1016.5
20260509133953 57 301 5.0 13.0 0.00 0.00 0.00 37 1016.5
20260509133848 57 258 5.0 13.0 0.00 0.00 0.00 35 1016.5
20260509133747 57 288 5.0 13.0 0.00 0.00 0.00 36 1016.4
20260509133647 57 273 5.0 13.0 0.00 0.00 0.00 36 1016.4
20260509133559 56 229 4.0 13.0 0.00 0.00 0.00 37 1016.2
20260509133552 56 273 4.0 11.0 0.00 0.00 0.00 39 1016.2
20260509133344 56 219 4.0 10.0 0.00 0.00 0.00 38 1016.4
20260509133244 56 240 4.0 10.0 0.00 0.00 0.00 38 1016.2
20260509133143 56 231 4.0 10.0 0.00 0.00 0.00 38 1016.2
20260509133045 56 205 4.0 10.0 0.00 0.00 0.00 38 1016.2
20260509132943 56 240 3.0 8.0 0.00 0.00 0.00 39 1016.4
20260509132736 56 240 3.0 8.0 0.00 0.00 0.00 39 1016.4
20260509132636 56 222 3.0 8.0 0.00 0.00 0.00 39 1016.4
20260509132537 56 241 3.0 7.0 0.00 0.00 0.00 38 1016.4
20260509132439 56 272 3.0 7.0 0.00 0.00 0.00 39 1016.4
20260509132231 56 254 3.0 7.0 0.00 0.00 0.00 40 1016.2
20260509132132 56 222 3.0 7.0 0.00 0.00 0.00 41 1016.4
20260509132032 56 275 3.0 7.0 0.00 0.00 0.00 41 1016.4
20260509131929 56 212 3.0 7.0 0.00 0.00 0.00 40 1016.4
20260509131832 56 232 3.0 7.0 0.00 0.00 0.00 40 1016.4
20260509131624 56 225 4.0 8.0 0.00 0.00 0.00 40 1016.5
20260509131535 56 273 4.0 8.0 0.00 0.00 0.00 40 1016.4
20260509131424 56 248 4.0 8.0 0.00 0.00 0.00 40 1016.4
20260509131318 56 272 4.0 8.0 0.00 0.00 0.00 40 1016.5
20260509131218 57 255 5.0 8.0 0.00 0.00 0.00 39 1016.4
20260509131118 57 255 5.0 8.0 0.00 0.00 0.00 39 1016.4
20260509131028 57 283 5.0 8.0 0.00 0.00 0.00 39 1016.4
20260509131022 57 253 6.0 8.0 0.00 0.00 0.00 39 1016.4
20260509130812 57 238 6.0 11.0 0.00 0.00 0.00 39 1016.2
20260509130713 57 249 6.0 11.0 0.00 0.00 0.00 40 1016.4
20260509130612 57 263 6.0 12.0 0.00 0.00 0.00 40 1016.4
20260509130524 57 246 6.0 12.0 0.00 0.00 0.00 40 1016.4
20260509130412 56 262 7.0 12.0 0.00 0.00 0.00 39 1016.4
20260509130320 56 267 7.0 12.0 0.00 0.00 0.00 39 1016.2
20260509130006 56 257 7.0 12.0 0.00 0.00 0.00 40 1016.2
20260509125905 56 287 7.0 12.0 0.00 0.00 0.00 40 1016.1
20260509125801 55 277 7.0 12.0 0.00 0.00 0.00 40 1016.1
20260509125701 55 291 7.0 12.0 0.00 0.00 0.00 40 1016.1
20260509125609 55 246 6.0 12.0 0.00 0.00 0.00 41 1016.1
20260509125359 54 284 5.0 11.0 0.00 0.00 0.00 42 1016.1
20260509125253 53 276 5.0 10.0 0.00 0.00 0.00 42 1016.1
20260509125202 53 254 4.0 10.0 0.00 0.00 0.00 43 1016.0
20260509124954 53 276 4.0 9.0 0.00 0.00 0.00 44 1016.0
20260509124855 52 302 3.0 8.0 0.00 0.00 0.00 45 1015.9
20260509124750 52 267 3.0 8.0 0.00 0.00 0.00 45 1016.0
20260509124651 52 281 3.0 8.0 0.00 0.00 0.00 45 1015.9
20260509124558 52 254 3.0 7.0 0.00 0.00 0.00 46 1015.9
20260509124349 52 281 2.0 7.0 0.00 0.00 0.00 48 1015.9
20260509124244 52 296 2.0 7.0 0.00 0.00 0.00 48 1015.9
20260509124143 52 309 1.0 7.0 0.00 0.00 0.00 48 1015.9
20260509124041 52 270 1.0 7.0 0.00 0.00 0.00 48 1015.9
20260509123943 52 279 1.0 4.0 0.00 0.00 0.00 48 1015.9
20260509123842 52 248 1.0 4.0 0.00 0.00 0.00 47 1015.9
20260509123742 52 222 0.0 3.0 0.00 0.00 0.00 47 1015.8
20260509123640 52 222 0.0 2.0 0.00 0.00 0.00 47 1015.8
20260509123540 52 222 0.0 2.0 0.00 0.00 0.00 47 1015.8
20260509123438 52 222 0.0 2.0 0.00 0.00 0.00 47 1015.8
20260509123336 52 222 0.0 2.0 0.00 0.00 0.00 46 1015.8
20260509123234 52 222 0.0 2.0 0.00 0.00 0.00 46 1015.6
20260509123140 52 79 0.0 1.0 0.00 0.00 0.00 46 1015.8
20260509122932 52 68 0.0 3.0 0.00 0.00 0.00 45 1015.6
20260509122847 53 67 0.0 3.0 0.00 0.00 0.00 45 1015.6
20260509122830 53 62 0.0 3.0 0.00 0.00 0.00 45 1015.6
20260509122726 53 63 1.0 3.0 0.00 0.00 0.00 45 1015.6
20260509122624 53 63 1.0 3.0 0.00 0.00 0.00 45 1015.6
20260509122523 53 63 1.0 3.0 0.00 0.00 0.00 45 1015.5
20260509122423 53 63 1.0 3.0 0.00 0.00 0.00 46 1015.5
20260509122347 53 63 1.0 3.0 0.00 0.00 0.00 46 1015.5
20260509122325 53 63 1.0 3.0 0.00 0.00 0.00 44 1015.5
20260509122224 53 63 1.0 3.0 0.00 0.00 0.00 45 1015.4
20260509122122 53 63 1.0 3.0 0.00 0.00 0.00 45 1015.4
20260509122022 53 63 1.0 2.0 0.00 0.00 0.00 45 1015.4
20260509121920 53 63 1.0 2.0 0.00 0.00 0.00 44 1015.5
20260509121819 53 63 1.0 2.0 0.00 0.00 0.00 44 1015.5
20260509121716 53 61 1.0 2.0 0.00 0.00 0.00 44 1015.5
20260509121615 53 52 1.0 2.0 0.00 0.00 0.00 44 1015.5
20260509121517 53 247 1.0 3.0 0.00 0.00 0.00 44 1015.5
20260509121413 53 247 1.0 4.0 0.00 0.00 0.00 44 1015.5
20260509121347 53 247 1.0 4.0 0.00 0.00 0.00 44 1015.4
20260509121311 53 247 1.0 4.0 0.00 0.00 0.00 44 1015.4
20260509121211 53 247 1.0 4.0 0.00 0.00 0.00 43 1015.4
20260509121110 53 247 1.0 4.0 0.00 0.00 0.00 43 1015.4
20260509121016 53 247 1.0 4.0 0.00 0.00 0.00 43 1015.5
20260509120846 54 247 1.0 4.0 0.00 0.00 0.00 42 1015.4
20260509120812 54 247 1.0 4.0 0.00 0.00 0.00 42 1015.4
20260509120604 54 247 1.0 4.0 0.00 0.00 0.00 43 1015.5
20260509120504 54 247 1.0 4.0 0.00 0.00 0.00 43 1015.5
20260509120345 54 315 1.0 4.0 0.00 0.00 0.00 43 1015.5
20260509120300 54 315 1.0 3.0 0.00 0.00 0.00 43 1015.5
20260509120054 54 315 1.0 4.0 0.00 0.00 0.00 43 1015.4
20260509115954 54 315 1.0 4.0 0.00 0.00 0.00 42 1015.4
20260509115845 54 315 1.0 4.0 0.00 0.00 0.00 42 1015.3
20260509115757 54 315 1.0 4.0 0.00 0.00 0.00 42 1015.3
20260509115604 54 315 2.0 7.0 0.00 0.00 0.00 42 1015.3
20260509115450 54 315 2.0 7.0 0.00 0.00 0.00 41 1015.3
20260509115248 54 315 2.0 7.0 0.00 0.00 0.00 41 1015.2
20260509115146 54 315 2.0 7.0 0.00 0.00 0.00 42 1015.3
20260509115046 54 315 2.0 7.0 0.00 0.00 0.00 41 1015.3
20260509114946 54 315 3.0 7.0 0.00 0.00 0.00 41 1015.2
20260509114849 53 315 3.0 7.0 0.00 0.00 0.00 41 1015.2
20260509114636 53 294 2.0 8.0 0.00 0.00 0.00 42 1015.2
20260509114535 53 262 2.0 8.0 0.00 0.00 0.00 43 1015.1
20260509114436 53 309 2.0 8.0 0.00 0.00 0.00 42 1015.2
20260509114346 53 303 2.0 8.0 0.00 0.00 0.00 42 1015.1
20260509114342 53 290 2.0 8.0 0.00 0.00 0.00 42 1015.1
20260509114131 53 290 2.0 8.0 0.00 0.00 0.00 42 1015.1
20260509114030 53 290 2.0 8.0 0.00 0.00 0.00 43 1015.1
20260509113942 53 284 1.0 8.0 0.00 0.00 0.00 43 1015.1
20260509113935 53 340 1.0 8.0 0.00 0.00 0.00 43 1014.9
20260509113729 53 290 1.0 8.0 0.00 0.00 0.00 43 1014.9
20260509113630 53 332 1.0 4.0 0.00 0.00 0.00 43 1014.9
20260509113528 53 332 1.0 4.0 0.00 0.00 0.00 43 1014.9
20260509113427 53 332 1.0 4.0 0.00 0.00 0.00 42 1014.8
20260509113326 53 332 1.0 4.0 0.00 0.00 0.00 42 1014.9
20260509113224 53 332 1.0 4.0 0.00 0.00 0.00 42 1014.9
20260509113119 53 332 1.0 4.0 0.00 0.00 0.00 42 1014.8
20260509113017 53 332 1.0 4.0 0.00 0.00 0.00 43 1014.8
20260509112917 53 344 1.0 4.0 0.00 0.00 0.00 43 1014.8
20260509112817 53 63 1.0 4.0 0.00 0.00 0.00 43 1014.8
20260509112719 53 63 1.0 4.0 0.00 0.00 0.00 43 1014.8
20260509112619 54 63 1.0 4.0 0.00 0.00 0.00 43 1014.9
20260509112411 54 74 1.0 3.0 0.00 0.00 0.00 42 1014.8
20260509112343 54 75 1.0 3.0 0.00 0.00 0.00 42 1014.8
20260509112313 54 74 1.0 3.0 0.00 0.00 0.00 42 1014.8
20260509112210 54 75 1.0 3.0 0.00 0.00 0.00 42 1014.9
20260509112110 54 75 1.0 3.0 0.00 0.00 0.00 42 1014.8
20260509111903 54 74 0.0 3.0 0.00 0.00 0.00 41 1014.8
20260509111843 54 75 0.0 2.0 0.00 0.00 0.00 41 1014.8
20260509111805 54 74 0.0 2.0 0.00 0.00 0.00 41 1014.8
20260509111703 55 74 0.0 3.0 0.00 0.00 0.00 41 1014.8
20260509111602 55 75 0.0 3.0 0.00 0.00 0.00 41 1014.8
20260509111501 55 74 0.0 3.0 0.00 0.00 0.00 41 1014.7
20260509111401 55 75 1.0 3.0 0.00 0.00 0.00 40 1014.7
20260509111337 55 74 1.0 3.0 0.00 0.00 0.00 40 1014.8
20260509111259 55 75 1.0 3.0 0.00 0.00 0.00 40 1014.8
20260509111200 55 75 1.0 3.0 0.00 0.00 0.00 39 1014.8
20260509110952 55 74 1.0 5.0 0.00 0.00 0.00 40 1014.7
20260509110910 55 75 1.0 5.0 0.00 0.00 0.00 39 1014.8
20260509110903 55 74 2.0 5.0 0.00 0.00 0.00 39 1014.8
20260509110547 55 311 2.0 5.0 0.00 0.00 0.00 39 1014.8
20260509110505 55 311 2.0 5.0 0.00 0.00 0.00 40 1014.8
20260509110458 55 311 2.0 5.0 0.00 0.00 0.00 40 1014.8
20260509110145 55 311 2.0 5.0 0.00 0.00 0.00 39 1014.7
20260509110040 55 340 2.0 5.0 0.00 0.00 0.00 38 1014.7
20260509110034 55 287 2.0 7.0 0.00 0.00 0.00 39 1014.7
20260509105740 55 296 2.0 7.0 0.00 0.00 0.00 40 1014.7
20260509105639 55 45 2.0 7.0 0.00 0.00 0.00 39 1014.6
20260509105545 55 5 2.0 7.0 0.00 0.00 0.00 39 1014.7
20260509105312 55 107 3.0 7.0 0.00 0.00 0.00 39 1014.7
20260509105235 55 107 3.0 7.0 0.00 0.00 0.00 40 1014.7
20260509105133 55 107 3.0 7.0 0.00 0.00 0.00 40 1014.7
20260509105034 55 107 3.0 7.0 0.00 0.00 0.00 40 1014.6
20260509104932 55 111 3.0 7.0 0.00 0.00 0.00 39 1014.7
20260509104838 55 99 2.0 6.0 0.00 0.00 0.00 39 1014.7
20260509104524 55 82 2.0 6.0 0.00 0.00 0.00 40 1014.7
20260509104422 55 355 3.0 6.0 0.00 0.00 0.00 41 1014.6
20260509104322 55 15 3.0 6.0 0.00 0.00 0.00 40 1014.5
20260509104302 55 70 3.0 6.0 0.00 0.00 0.00 40 1014.5
20260509104222 55 179 3.0 6.0 0.00 0.00 0.00 40 1014.5
20260509104122 55 267 3.0 6.0 0.00 0.00 0.00 39 1014.6
20260509104018 55 287 3.0 6.0 0.00 0.00 0.00 40 1014.6
20260509103918 56 294 3.0 6.0 0.00 0.00 0.00 40 1014.6
20260509103818 56 252 3.0 6.0 0.00 0.00 0.00 39 1014.5
20260509103754 56 261 3.0 6.0 0.00 0.00 0.00 39 1014.5
20260509103718 56 261 3.0 6.0 0.00 0.00 0.00 39 1014.5
20260509103616 56 257 3.0 6.0 0.00 0.00 0.00 39 1014.5
20260509103511 56 257 3.0 6.0 0.00 0.00 0.00 39 1014.5
20260509103436 56 275 2.0 6.0 0.00 0.00 0.00 39 1014.6
20260509103428 56 254 2.0 6.0 0.00 0.00 0.00 38 1014.5
20260509103005 56 257 2.0 6.0 0.00 0.00 0.00 38 1014.5
20260509102906 56 223 2.0 5.0 0.00 0.00 0.00 38 1014.5
20260509102806 56 289 2.0 5.0 0.00 0.00 0.00 37 1014.6
20260509102743 56 265 2.0 5.0 0.00 0.00 0.00 37 1014.6
20260509102710 56 275 2.0 5.0 0.00 0.00 0.00 37 1014.6
20260509102500 56 219 3.0 5.0 0.00 0.00 0.00 37 1014.5
20260509102358 57 227 3.0 7.0 0.00 0.00 0.00 37 1014.5
20260509102309 57 234 3.0 7.0 0.00 0.00 0.00 37 1014.5
20260509102305 57 234 3.0 7.0 0.00 0.00 0.00 37 1014.6